FW6073 Weather Reports


time (UTC)temp
F
wind
direction
speed
knots
gust
knots
rain 1hr
in
rain 24hr
in
rain mn
in
humidity
%
barometer
mb
20260508214902 64 224 0.9 4.3 0.00 0.00 0.00 36 1006.0
20260508214802 64 227 0.9 3.5 0.00 0.00 0.00 35 1005.9
20260508214702 64 227 0.9 3.5 0.00 0.00 0.00 34 1005.9
20260508214602 64 223 0.9 3.5 0.00 0.00 0.00 35 1005.9
20260508214523 64 234 0.0 3.5 0.00 0.00 0.00 35 1005.9
20260508214402 64 262 0.0 1.7 0.00 0.00 0.00 35 1006.0
20260508214323 64 250 0.0 2.6 0.00 0.00 0.00 35 1006.0
20260508214202 64 239 0.0 2.6 0.00 0.00 0.00 35 1006.1
20260508214102 64 232 0.9 4.3 0.00 0.00 0.00 35 1006.1
20260508214023 64 229 0.9 4.3 0.00 0.00 0.00 35 1006.1
20260508213902 64 225 0.9 4.3 0.00 0.00 0.00 35 1006.1
20260508213802 64 224 0.9 4.3 0.00 0.00 0.00 35 1006.1
20260508213702 64 224 0.9 4.3 0.00 0.00 0.00 36 1006.1
20260508213602 64 223 0.9 4.3 0.00 0.00 0.00 37 1006.1
20260508213502 64 221 1.7 4.3 0.00 0.00 0.00 35 1006.0
20260508213402 64 218 1.7 4.3 0.00 0.00 0.00 35 1006.0
20260508213302 64 216 0.9 4.3 0.00 0.00 0.00 35 1006.1
20260508213223 64 215 0.9 4.3 0.00 0.00 0.00 34 1006.1
20260508213102 64 213 0.9 4.3 0.00 0.00 0.00 33 1006.1
20260508213002 64 212 0.9 4.3 0.00 0.00 0.00 34 1006.1
20260508212902 64 215 0.9 4.3 0.00 0.00 0.00 34 1006.1
20260508212802 64 214 0.9 4.3 0.00 0.00 0.00 36 1006.2
20260508212702 64 213 0.9 3.5 0.00 0.00 0.00 33 1006.1
20260508212602 64 215 0.9 3.5 0.00 0.00 0.00 33 1006.1
20260508212523 64 216 0.9 3.5 0.00 0.00 0.00 34 1006.1
20260508212402 64 226 0.9 3.5 0.00 0.00 0.00 34 1006.1
20260508212306 64 225 0.9 3.5 0.00 0.00 0.00 33 1006.1
20260508212202 64 226 0.9 3.5 0.00 0.00 0.00 33 1006.2
20260508212102 64 226 0.9 3.5 0.00 0.00 0.00 33 1006.2
20260508212002 64 225 0.9 4.3 0.00 0.00 0.00 33 1006.2
20260508211902 64 225 0.9 4.3 0.00 0.00 0.00 36 1006.2
20260508211802 64 225 0.9 4.3 0.00 0.00 0.00 35 1006.2
20260508211702 64 224 1.7 5.2 0.00 0.00 0.00 34 1006.2
20260508211602 64 224 1.7 5.2 0.00 0.00 0.00 35 1006.2
20260508211502 64 224 1.7 5.2 0.00 0.00 0.00 34 1006.1
20260508211402 64 223 1.7 5.2 0.00 0.00 0.00 33 1006.2
20260508211302 64 224 1.7 5.2 0.00 0.00 0.00 33 1006.2
20260508211223 64 223 1.7 5.2 0.00 0.00 0.00 34 1006.2
20260508211123 65 222 1.7 5.2 0.00 0.00 0.00 33 1006.2
20260508211023 65 223 1.7 5.2 0.00 0.00 0.00 34 1006.1
20260508210902 65 221 1.7 5.2 0.00 0.00 0.00 35 1006.1
20260508210802 65 219 0.9 5.2 0.00 0.00 0.00 33 1006.1
20260508210702 65 227 0.9 5.2 0.00 0.00 0.00 34 1006.2
20260508210602 65 228 0.9 5.2 0.00 0.00 0.00 34 1006.2
20260508210502 65 234 0.9 5.2 0.00 0.00 0.00 34 1006.2
20260508210402 65 241 0.9 5.2 0.00 0.00 0.00 35 1006.2
20260508210302 64 233 0.9 5.2 0.00 0.00 0.00 34 1006.2
20260508210203 64 243 0.9 5.2 0.00 0.00 0.00 33 1006.2
20260508210124 64 250 0.9 5.2 0.00 0.00 0.00 33 1006.2
20260508210002 64 251 0.9 5.2 0.00 0.00 0.00 32 1006.3
20260508205923 65 266 0.9 5.2 0.00 0.00 0.00 32 1006.3
20260508205802 65 251 0.9 5.2 0.00 0.00 0.00 33 1006.3
20260508205702 65 248 0.9 5.2 0.00 0.00 0.00 33 1006.4
20260508205602 65 249 0.9 5.2 0.00 0.00 0.00 34 1006.3
20260508205502 65 246 0.9 5.2 0.00 0.00 0.00 33 1006.3
20260508205402 65 244 0.9 5.2 0.00 0.00 0.00 33 1006.3
20260508205323 65 248 0.9 5.2 0.00 0.00 0.00 33 1006.3
20260508205202 65 244 0.9 6.1 0.00 0.00 0.00 33 1006.3
20260508205102 64 243 0.9 6.1 0.00 0.00 0.00 33 1006.4
20260508205023 64 241 0.9 6.1 0.00 0.00 0.00 33 1006.4
20260508204923 64 237 0.9 6.1 0.00 0.00 0.00 33 1006.3
20260508204802 64 243 0.9 6.1 0.00 0.00 0.00 33 1006.5
20260508204702 64 240 0.9 6.1 0.00 0.00 0.00 35 1006.5
20260508204623 64 241 0.9 6.1 0.00 0.00 0.00 34 1006.4
20260508204502 64 236 0.9 6.1 0.00 0.00 0.00 34 1006.4
20260508204423 64 233 1.7 6.1 0.00 0.00 0.00 33 1006.6
20260508204323 64 230 1.7 6.1 0.00 0.00 0.00 36 1006.6
20260508204202 64 225 1.7 5.2 0.00 0.00 0.00 33 1006.6
20260508204102 64 221 1.7 5.2 0.00 0.00 0.00 33 1006.5
20260508204002 64 219 1.7 5.2 0.00 0.00 0.00 33 1006.5
20260508203923 64 220 1.7 5.2 0.00 0.00 0.00 33 1006.5
20260508203823 64 219 1.7 5.2 0.00 0.00 0.00 31 1006.5
20260508203703 64 217 2.6 6.1 0.00 0.00 0.00 34 1006.6
20260508203602 64 216 2.6 6.1 0.00 0.00 0.00 35 1006.6
20260508203502 65 216 1.7 6.1 0.00 0.00 0.00 32 1006.5
20260508203402 65 216 1.7 6.1 0.00 0.00 0.00 33 1006.5
20260508203302 65 216 1.7 6.1 0.00 0.00 0.00 35 1006.6
20260508203202 65 218 1.7 6.1 0.00 0.00 0.00 36 1006.6
20260508203102 65 221 1.7 6.1 0.00 0.00 0.00 33 1006.6
20260508203002 65 225 0.9 6.1 0.00 0.00 0.00 34 1006.5
20260508202902 64 228 0.9 6.1 0.00 0.00 0.00 33 1006.5
20260508202802 65 232 0.9 6.1 0.00 0.00 0.00 34 1006.5
20260508202702 65 238 0.9 3.5 0.00 0.00 0.00 33 1006.5
20260508202623 64 244 0.9 3.5 0.00 0.00 0.00 33 1006.6
20260508202502 64 262 0.9 3.5 0.00 0.00 0.00 33 1006.6
20260508202423 64 277 0.9 2.6 0.00 0.00 0.00 33 1006.6
20260508202306 64 290 0.9 2.6 0.00 0.00 0.00 34 1006.7
20260508202202 64 297 0.9 2.6 0.00 0.00 0.00 33 1006.7
20260508202102 64 297 0.9 2.6 0.00 0.00 0.00 33 1006.7
20260508202002 64 302 0.9 2.6 0.00 0.00 0.00 34 1006.8
20260508201902 64 277 0.9 2.6 0.00 0.00 0.00 34 1006.8
20260508201802 64 250 0.9 3.5 0.00 0.00 0.00 35 1006.8
20260508201702 64 243 0.9 4.3 0.00 0.00 0.00 34 1006.8
20260508201602 64 237 0.9 4.3 0.00 0.00 0.00 34 1006.8
20260508201502 64 232 0.9 4.3 0.00 0.00 0.00 35 1006.9
20260508201402 64 228 0.9 4.3 0.00 0.00 0.00 35 1006.9
20260508201302 64 226 0.9 4.3 0.00 0.00 0.00 35 1006.9
20260508201224 64 227 1.7 4.3 0.00 0.00 0.00 35 1006.9
20260508201102 64 232 1.7 4.3 0.00 0.00 0.00 34 1006.9
20260508201002 64 231 1.7 4.3 0.00 0.00 0.00 34 1006.9
20260508200902 64 234 1.7 4.3 0.00 0.00 0.00 34 1006.9
20260508200802 63 237 1.7 4.3 0.00 0.00 0.00 36 1007.0
20260508200702 63 240 1.7 4.3 0.00 0.00 0.00 37 1007.0
20260508200602 63 242 1.7 4.3 0.00 0.00 0.00 36 1007.0
20260508200502 63 253 0.9 4.3 0.00 0.00 0.00 37 1007.1
20260508200402 63 265 0.9 4.3 0.00 0.00 0.00 36 1007.1
20260508200302 63 272 0.9 4.3 0.00 0.00 0.00 36 1007.1
20260508200202 63 269 0.9 4.3 0.00 0.00 0.00 36 1007.1
20260508200002 63 256 0.9 4.3 0.00 0.00 0.00 36 1007.1
20260508195902 63 242 1.7 4.3 0.00 0.00 0.00 36 1007.2
20260508195823 63 234 1.7 4.3 0.00 0.00 0.00 35 1007.2
20260508195723 63 237 1.7 4.3 0.00 0.00 0.00 34 1007.3
20260508195602 63 262 1.7 4.3 0.00 0.00 0.00 35 1007.3
20260508195523 63 263 1.7 4.3 0.00 0.00 0.00 33 1007.2
20260508195423 63 257 1.7 4.3 0.00 0.00 0.00 33 1007.2
20260508195305 64 254 1.7 4.3 0.00 0.00 0.00 35 1007.2
20260508195202 64 278 1.7 4.3 0.00 0.00 0.00 34 1007.3
20260508195102 64 289 1.7 4.3 0.00 0.00 0.00 35 1007.3
20260508195023 64 308 1.7 4.3 0.00 0.00 0.00 34 1007.3
20260508194902 64 327 0.9 4.3 0.00 0.00 0.00 36 1007.3
20260508194802 64 334 0.9 3.5 0.00 0.00 0.00 36 1007.3
20260508194702 64 333 0.9 3.5 0.00 0.00 0.00 35 1007.3
20260508194602 64 325 0.9 2.6 0.00 0.00 0.00 34 1007.3
20260508194523 64 323 0.9 2.6 0.00 0.00 0.00 35 1007.3
20260508194402 64 301 0.9 2.6 0.00 0.00 0.00 36 1007.3
20260508194302 63 292 0.9 2.6 0.00 0.00 0.00 35 1007.3
20260508194223 63 272 0.9 2.6 0.00 0.00 0.00 35 1007.3
20260508194123 63 255 0.9 2.6 0.00 0.00 0.00 34 1007.3
20260508194002 63 247 1.7 3.5 0.00 0.00 0.00 33 1007.4
20260508193902 63 251 1.7 3.5 0.00 0.00 0.00 33 1007.5
20260508193802 64 246 1.7 5.2 0.00 0.00 0.00 32 1007.5
20260508193702 64 240 1.7 5.2 0.00 0.00 0.00 31 1007.5
20260508193602 64 235 1.7 5.2 0.00 0.00 0.00 32 1007.6
20260508193502 64 234 1.7 5.2 0.00 0.00 0.00 33 1007.6
20260508193402 64 231 1.7 5.2 0.00 0.00 0.00 32 1007.6
20260508193302 64 228 1.7 5.2 0.00 0.00 0.00 33 1007.6
20260508193223 64 228 0.9 5.2 0.00 0.00 0.00 33 1007.6
20260508193123 64 227 0.9 5.2 0.00 0.00 0.00 34 1007.6
20260508193002 64 228 0.9 5.2 0.00 0.00 0.00 34 1007.6
20260508192923 64 228 0.9 5.2 0.00 0.00 0.00 34 1007.6
20260508192802 64 226 0.9 4.3 0.00 0.00 0.00 34 1007.6
20260508192702 64 226 0.9 4.3 0.00 0.00 0.00 33 1007.6
20260508192602 64 229 0.9 4.3 0.00 0.00 0.00 32 1007.7
20260508192502 64 229 0.9 4.3 0.00 0.00 0.00 36 1007.7
20260508192402 64 234 0.9 4.3 0.00 0.00 0.00 34 1007.7
20260508192305 64 238 0.9 4.3 0.00 0.00 0.00 33 1007.7
20260508192202 64 231 1.7 4.3 0.00 0.00 0.00 35 1007.7
20260508192102 64 231 1.7 4.3 0.00 0.00 0.00 34 1007.7
20260508192002 64 230 1.7 4.3 0.00 0.00 0.00 34 1007.7
20260508191902 64 228 1.7 4.3 0.00 0.00 0.00 35 1007.7
20260508191802 64 230 1.7 4.3 0.00 0.00 0.00 34 1007.8
20260508191723 64 229 1.7 4.3 0.00 0.00 0.00 32 1007.8
20260508191623 64 228 1.7 4.3 0.00 0.00 0.00 33 1007.8
20260508191502 64 225 1.7 4.3 0.00 0.00 0.00 33 1007.8
20260508191402 64 223 1.7 4.3 0.00 0.00 0.00 37 1007.8
20260508191302 64 223 0.9 4.3 0.00 0.00 0.00 37 1007.9
20260508191223 64 226 0.9 4.3 0.00 0.00 0.00 34 1007.9
20260508191123 64 220 1.7 7.0 0.00 0.00 0.00 35 1007.9
20260508191002 64 216 1.7 7.0 0.00 0.00 0.00 34 1007.9
20260508190902 64 213 1.7 7.0 0.00 0.00 0.00 35 1007.9
20260508190823 64 212 0.9 7.0 0.00 0.00 0.00 37 1007.9
20260508190702 64 213 0.9 7.0 0.00 0.00 0.00 35 1007.9
20260508190623 64 213 1.7 7.0 0.00 0.00 0.00 35 1007.9
20260508190502 64 212 1.7 7.0 0.00 0.00 0.00 36 1007.9
20260508190402 64 213 1.7 7.0 0.00 0.00 0.00 35 1007.9
20260508190302 64 214 1.7 7.0 0.00 0.00 0.00 33 1008.0
20260508190202 64 214 1.7 7.0 0.00 0.00 0.00 36 1008.0
20260508190002 64 224 0.9 5.2 0.00 0.00 0.00 38 1007.9
20260508185902 64 228 0.9 5.2 0.00 0.00 0.00 36 1007.9
20260508185802 64 225 0.9 5.2 0.00 0.00 0.00 35 1008.0
20260508185702 64 222 0.9 5.2 0.00 0.00 0.00 33 1008.1
20260508185602 64 216 0.9 5.2 0.00 0.00 0.00 35 1008.1
20260508185502 64 219 1.7 5.2 0.00 0.00 0.00 33 1008.2
20260508185402 64 220 1.7 5.2 0.00 0.00 0.00 36 1008.2
20260508185306 64 222 1.7 5.2 0.00 0.00 0.00 34 1008.2
20260508185202 64 224 1.7 5.2 0.00 0.00 0.00 33 1008.2
20260508185102 64 226 1.7 5.2 0.00 0.00 0.00 32 1008.2
20260508185002 65 224 1.7 5.2 0.00 0.00 0.00 33 1008.3
20260508184902 65 225 1.7 5.2 0.00 0.00 0.00 35 1008.3
20260508184802 65 229 1.7 5.2 0.00 0.00 0.00 33 1008.1
20260508184702 65 232 1.7 5.2 0.00 0.00 0.00 34 1008.2
20260508184602 65 243 0.9 3.5 0.00 0.00 0.00 32 1008.2
20260508184502 65 242 0.9 3.5 0.00 0.00 0.00 34 1008.2
20260508184402 65 242 0.9 3.5 0.00 0.00 0.00 33 1008.2
20260508184302 65 237 0.9 3.5 0.00 0.00 0.00 34 1008.2
20260508184202 65 229 1.7 3.5 0.00 0.00 0.00 34 1008.2
20260508184123 65 226 1.7 3.5 0.00 0.00 0.00 33 1008.2
20260508184002 65 223 0.9 3.5 0.00 0.00 0.00 35 1008.2
20260508183902 65 221 0.9 3.5 0.00 0.00 0.00 33 1008.2
20260508183803 65 219 0.9 3.5 0.00 0.00 0.00 34 1008.2
20260508183702 64 220 0.9 3.5 0.00 0.00 0.00 33 1008.3
20260508183602 64 216 1.7 5.2 0.00 0.00 0.00 35 1008.3
20260508183502 64 214 1.7 5.2 0.00 0.00 0.00 36 1008.3
20260508183402 64 214 1.7 5.2 0.00 0.00 0.00 34 1008.3
20260508183302 64 219 0.9 5.2 0.00 0.00 0.00 32 1008.3
20260508183202 64 224 0.9 5.2 0.00 0.00 0.00 34 1008.4
20260508183123 64 227 0.9 5.2 0.00 0.00 0.00 34 1008.4
20260508183002 64 236 0.9 5.2 0.00 0.00 0.00 32 1008.4
20260508182902 64 234 0.9 5.2 0.00 0.00 0.00 33 1008.4
20260508182802 64 234 0.9 5.2 0.00 0.00 0.00 32 1008.4
20260508182702 64 234 0.9 5.2 0.00 0.00 0.00 36 1008.5
20260508182602 64 239 0.9 4.3 0.00 0.00 0.00 33 1008.5
20260508182523 64 247 0.9 4.3 0.00 0.00 0.00 37 1008.5
20260508182402 64 251 0.9 4.3 0.00 0.00 0.00 34 1008.5
20260508182323 64 243 1.7 5.2 0.00 0.00 0.00 35 1008.5
20260508182202 64 236 1.7 7.0 0.00 0.00 0.00 36 1008.5
20260508182102 64 236 1.7 7.0 0.00 0.00 0.00 34 1008.5
20260508182002 64 236 1.7 7.0 0.00 0.00 0.00 34 1008.5
20260508181902 64 238 1.7 7.0 0.00 0.00 0.00 37 1008.5
20260508181802 64 240 1.7 7.0 0.00 0.00 0.00 33 1008.5
20260508181723 64 240 1.7 7.0 0.00 0.00 0.00 35 1008.5
20260508181602 64 241 1.7 7.0 0.00 0.00 0.00 33 1008.5
20260508181502 64 237 1.7 7.0 0.00 0.00 0.00 33 1008.5
20260508181402 64 234 1.7 7.0 0.00 0.00 0.00 35 1008.5
20260508181302 64 236 1.7 7.0 0.00 0.00 0.00 33 1008.5
20260508181203 64 240 1.7 4.3 0.00 0.00 0.00 34 1008.4
20260508181123 64 240 1.7 4.3 0.00 0.00 0.00 32 1008.4
20260508181002 64 235 1.7 4.3 0.00 0.00 0.00 31 1008.5
20260508180923 64 235 1.7 5.2 0.00 0.00 0.00 31 1008.5
20260508180802 64 232 1.7 5.2 0.00 0.00 0.00 33 1008.6
20260508180702 64 233 1.7 5.2 0.00 0.00 0.00 33 1008.6
20260508180602 64 233 1.7 5.2 0.00 0.00 0.00 36 1008.6
20260508180502 64 230 1.7 5.2 0.00 0.00 0.00 32 1008.6
20260508180402 64 232 1.7 5.2 0.00 0.00 0.00 33 1008.7
20260508180302 64 232 1.7 5.2 0.00 0.00 0.00 33 1008.6
20260508180202 64 231 1.7 5.2 0.00 0.00 0.00 33 1008.6
20260508180002 64 235 1.7 5.2 0.00 0.00 0.00 30 1008.6
20260508175902 64 250 1.7 4.3 0.00 0.00 0.00 32 1008.6
20260508175802 64 259 1.7 4.3 0.00 0.00 0.00 33 1008.6
20260508175702 64 256 1.7 4.3 0.00 0.00 0.00 32 1008.6
20260508175602 64 265 1.7 4.3 0.00 0.00 0.00 32 1008.7
20260508175502 64 274 1.7 4.3 0.00 0.00 0.00 34 1008.7
20260508175402 63 287 1.7 4.3 0.00 0.00 0.00 36 1008.7
20260508175305 63 297 0.9 4.3 0.00 0.00 0.00 37 1008.7
20260508175202 63 299 0.9 4.3 0.00 0.00 0.00 32 1008.7
20260508175102 63 308 0.9 4.3 0.00 0.00 0.00 31 1008.7
20260508175002 63 301 0.9 4.3 0.00 0.00 0.00 32 1008.9
20260508174923 63 289 0.9 4.3 0.00 0.00 0.00 32 1008.9
20260508174802 63 279 0.9 3.5 0.00 0.00 0.00 34 1008.9
20260508174702 63 272 0.9 3.5 0.00 0.00 0.00 32 1008.9
20260508174602 63 249 0.9 5.2 0.00 0.00 0.00 34 1008.9
20260508174502 63 251 0.9 5.2 0.00 0.00 0.00 35 1008.9
20260508174423 63 246 1.7 5.2 0.00 0.00 0.00 34 1008.9
20260508174323 62 248 1.7 5.2 0.00 0.00 0.00 34 1008.9
20260508174202 62 250 1.7 5.2 0.00 0.00 0.00 34 1008.9
20260508174102 62 250 0.9 5.2 0.00 0.00 0.00 34 1009.0
20260508174002 62 241 1.7 5.2 0.00 0.00 0.00 34 1009.1
20260508173902 62 229 1.7 5.2 0.00 0.00 0.00 33 1009.1
20260508173823 62 224 1.7 5.2 0.00 0.00 0.00 36 1009.2
20260508173702 62 223 1.7 5.2 0.00 0.00 0.00 33 1009.2
20260508173602 62 223 1.7 3.5 0.00 0.00 0.00 34 1009.1
20260508173502 62 220 1.7 3.5 0.00 0.00 0.00 35 1009.1
20260508173423 62 219 1.7 3.5 0.00 0.00 0.00 35 1009.1
20260508173302 62 209 1.7 3.5 0.00 0.00 0.00 33 1009.1
20260508173202 62 207 1.7 3.5 0.00 0.00 0.00 32 1009.2
20260508173102 62 209 1.7 4.3 0.00 0.00 0.00 34 1009.2
20260508173002 62 211 1.7 4.3 0.00 0.00 0.00 31 1009.2
20260508172902 62 211 1.7 4.3 0.00 0.00 0.00 32 1009.2
20260508172802 63 212 1.7 4.3 0.00 0.00 0.00 31 1009.3
20260508172702 63 214 1.7 4.3 0.00 0.00 0.00 31 1009.3
20260508172602 63 212 1.7 4.3 0.00 0.00 0.00 34 1009.3
20260508172502 63 213 1.7 4.3 0.00 0.00 0.00 31 1009.3
20260508172402 63 219 1.7 4.3 0.00 0.00 0.00 33 1009.3
20260508172306 63 225 0.9 4.3 0.00 0.00 0.00 34 1009.4
20260508172202 63 227 0.9 4.3 0.00 0.00 0.00 32 1009.5
20260508172102 63 228 0.9 3.5 0.00 0.00 0.00 33 1009.5
20260508172002 63 225 0.9 3.5 0.00 0.00 0.00 32 1009.5
20260508171923 63 224 0.9 3.5 0.00 0.00 0.00 32 1009.5
20260508171802 63 230 0.9 3.5 0.00 0.00 0.00 30 1009.4
20260508171702 63 230 0.9 3.5 0.00 0.00 0.00 31 1009.5
20260508171602 63 238 0.9 3.5 0.00 0.00 0.00 32 1009.5
20260508171502 63 244 0.9 3.5 0.00 0.00 0.00 31 1009.5
20260508171402 63 241 0.9 3.5 0.00 0.00 0.00 33 1009.6
20260508171302 63 237 0.9 3.5 0.00 0.00 0.00 32 1009.6
20260508171202 63 237 0.9 3.5 0.00 0.00 0.00 33 1009.6
20260508171102 63 236 0.9 3.5 0.00 0.00 0.00 33 1009.6
20260508171002 63 242 0.9 3.5 0.00 0.00 0.00 32 1009.6
20260508170902 63 241 0.9 3.5 0.00 0.00 0.00 32 1009.6
20260508170802 63 234 0.9 3.5 0.00 0.00 0.00 33 1009.6
20260508170702 63 239 1.7 3.5 0.00 0.00 0.00 31 1009.7
20260508170602 63 241 1.7 3.5 0.00 0.00 0.00 31 1009.7
20260508170502 63 249 1.7 3.5 0.00 0.00 0.00 35 1009.7
20260508170423 63 260 1.7 3.5 0.00 0.00 0.00 35 1009.7
20260508170302 62 266 1.7 3.5 0.00 0.00 0.00 34 1009.6
20260508170202 62 264 1.7 3.5 0.00 0.00 0.00 36 1009.7
20260508170002 62 247 1.7 4.3 0.00 0.00 0.00 35 1009.7
20260508165902 62 243 1.7 5.2 0.00 0.00 0.00 33 1009.8
20260508165823 62 244 1.7 5.2 0.00 0.00 0.00 33 1009.8
20260508165702 62 233 1.7 5.2 0.00 0.00 0.00 32 1009.8
20260508165602 63 226 1.7 5.2 0.00 0.00 0.00 34 1009.8
20260508165502 63 217 1.7 5.2 0.00 0.00 0.00 32 1009.8
20260508165402 63 214 1.7 5.2 0.00 0.00 0.00 35 1009.8
20260508165306 62 213 1.7 5.2 0.00 0.00 0.00 34 1009.8
20260508165223 62 214 1.7 5.2 0.00 0.00 0.00 34 1009.9
20260508165102 62 217 1.7 5.2 0.00 0.00 0.00 33 1009.9
20260508165002 62 219 0.9 5.2 0.00 0.00 0.00 36 1009.9
20260508164923 62 220 0.9 5.2 0.00 0.00 0.00 34 1009.9
20260508164802 63 218 0.9 5.2 0.00 0.00 0.00 32 1009.9
20260508164702 63 225 0.9 5.2 0.00 0.00 0.00 36 1009.9
20260508164602 63 224 0.9 3.5 0.00 0.00 0.00 35 1010.0
20260508164523 62 227 0.9 3.5 0.00 0.00 0.00 33 1010.0
20260508164402 62 227 0.9 5.2 0.00 0.00 0.00 37 1010.0
20260508164302 62 226 1.7 5.2 0.00 0.00 0.00 36 1010.0
20260508164202 62 236 1.7 6.1 0.00 0.00 0.00 40 1010.0
20260508164103 62 242 1.7 6.1 0.00 0.00 0.00 40 1010.0
20260508164002 62 256 1.7 6.1 0.00 0.00 0.00 36 1010.0
20260508163902 62 251 1.7 6.1 0.00 0.00 0.00 36 1010.0
20260508163802 61 251 1.7 6.1 0.00 0.00 0.00 37 1010.1
20260508163724 61 261 1.7 6.1 0.00 0.00 0.00 37 1010.1
20260508163602 61 284 1.7 6.1 0.00 0.00 0.00 38 1010.0
20260508163502 61 307 1.7 6.1 0.00 0.00 0.00 39 1010.0
20260508163402 61 349 1.7 6.1 0.00 0.00 0.00 39 1009.9
20260508163302 61 1 1.7 6.1 0.00 0.00 0.00 38 1010.0
20260508163202 60 358 1.7 3.5 0.00 0.00 0.00 35 1010.0
20260508163102 60 1 1.7 5.2 0.00 0.00 0.00 36 1010.1
20260508163023 60 360 1.7 5.2 0.00 0.00 0.00 35 1010.1
20260508162902 60 3 1.7 5.2 0.00 0.00 0.00 37 1010.0
20260508162802 60 4 1.7 5.2 0.00 0.00 0.00 36 1010.1
20260508162702 60 6 1.7 5.2 0.00 0.00 0.00 35 1010.1
20260508162602 60 7 1.7 5.2 0.00 0.00 0.00 36 1010.0
20260508162502 60 8 1.7 5.2 0.00 0.00 0.00 35 1010.1
20260508162402 60 360 1.7 5.2 0.00 0.00 0.00 37 1010.1
20260508162306 61 352 1.7 5.2 0.00 0.00 0.00 34 1010.1
20260508162202 61 352 0.9 5.2 0.00 0.00 0.00 34 1010.1
20260508162102 61 319 0.9 3.5 0.00 0.00 0.00 38 1010.1
20260508162002 61 273 0.9 3.5 0.00 0.00 0.00 34 1010.1
20260508161902 61 218 0.9 3.5 0.00 0.00 0.00 35 1010.1
20260508161802 61 218 0.9 3.5 0.00 0.00 0.00 36 1010.1
20260508161723 61 233 0.9 3.5 0.00 0.00 0.00 36 1010.1
20260508161602 61 236 0.9 3.5 0.00 0.00 0.00 37 1010.1
20260508161523 61 237 0.9 3.5 0.00 0.00 0.00 38 1010.1
20260508161402 61 234 0.9 3.5 0.00 0.00 0.00 36 1010.2
20260508161302 60 232 0.9 3.5 0.00 0.00 0.00 36 1010.2
20260508161202 60 229 0.9 3.5 0.00 0.00 0.00 35 1010.3
20260508161123 60 229 1.7 3.5 0.00 0.00 0.00 35 1010.3
20260508161002 60 235 1.7 3.5 0.00 0.00 0.00 36 1010.3
20260508160902 60 234 1.7 3.5 0.00 0.00 0.00 36 1010.3
20260508160802 60 227 1.7 3.5 0.00 0.00 0.00 38 1010.3
20260508160702 60 216 0.9 3.5 0.00 0.00 0.00 38 1010.3
20260508160602 60 213 0.9 3.5 0.00 0.00 0.00 40 1010.3
20260508160502 60 211 0.9 3.5 0.00 0.00 0.00 42 1010.4
20260508160402 60 206 0.9 3.5 0.00 0.00 0.00 41 1010.4
20260508160302 60 196 0.9 3.5 0.00 0.00 0.00 42 1010.5
20260508160223 60 199 0.9 3.5 0.00 0.00 0.00 46 1010.5
20260508160002 60 199 0.9 3.5 0.00 0.00 0.00 41 1010.5
20260508155902 60 205 0.9 3.5 0.00 0.00 0.00 43 1010.5
20260508155823 60 207 0.9 3.5 0.00 0.00 0.00 42 1010.5
20260508155702 60 204 0.9 4.3 0.00 0.00 0.00 42 1010.5
20260508155623 60 208 0.9 4.3 0.00 0.00 0.00 43 1010.5
20260508155502 60 207 1.7 4.3 0.00 0.00 0.00 40 1010.5
20260508155402 60 207 1.7 4.3 0.00 0.00 0.00 43 1010.5
20260508155305 60 212 0.9 4.3 0.00 0.00 0.00 39 1010.5
20260508155202 60 220 0.9 4.3 0.00 0.00 0.00 39 1010.6
20260508155102 60 224 0.9 4.3 0.00 0.00 0.00 41 1010.6
20260508155002 60 222 0.9 4.3 0.00 0.00 0.00 41 1010.6
20260508154923 60 224 0.9 4.3 0.00 0.00 0.00 44 1010.6
20260508154802 60 230 0.9 3.5 0.00 0.00 0.00 44 1010.5
20260508154702 60 231 0.9 3.5 0.00 0.00 0.00 44 1010.5
20260508154623 60 229 0.9 3.5 0.00 0.00 0.00 44 1010.5
20260508154502 60 235 0.9 3.5 0.00 0.00 0.00 44 1010.5
20260508154402 59 239 0.9 3.5 0.00 0.00 0.00 43 1010.5
20260508154302 59 238 0.9 3.5 0.00 0.00 0.00 43 1010.5
20260508154202 59 227 0.9 3.5 0.00 0.00 0.00 43 1010.5
20260508154102 59 221 0.9 3.5 0.00 0.00 0.00 41 1010.5
20260508154023 59 227 0.9 3.5 0.00 0.00 0.00 41 1010.5
20260508153923 59 227 0.9 3.5 0.00 0.00 0.00 44 1010.6
20260508153802 59 225 1.7 5.2 0.00 0.00 0.00 46 1010.6
20260508153702 59 222 1.7 5.2 0.00 0.00 0.00 47 1010.6
20260508153623 59 222 1.7 5.2 0.00 0.00 0.00 47 1010.6
20260508153502 58 225 1.7 5.2 0.00 0.00 0.00 45 1010.5
20260508153402 58 225 1.7 5.2 0.00 0.00 0.00 43 1010.6
20260508153302 58 228 1.7 5.2 0.00 0.00 0.00 44 1010.6
20260508153223 58 225 0.9 5.2 0.00 0.00 0.00 44 1010.6
20260508153102 58 235 1.7 5.2 0.00 0.00 0.00 42 1010.7
20260508153002 59 262 1.7 5.2 0.00 0.00 0.00 41 1010.7
20260508152902 59 309 0.9 5.2 0.00 0.00 0.00 42 1010.7
20260508152802 59 348 0.9 3.5 0.00 0.00 0.00 43 1010.7
20260508152702 59 358 0.9 3.5 0.00 0.00 0.00 43 1010.7
20260508152623 59 354 0.9 3.5 0.00 0.00 0.00 41 1010.7
20260508152502 58 356 0.9 3.5 0.00 0.00 0.00 44 1010.7
20260508152402 58 356 0.9 3.5 0.00 0.00 0.00 43 1010.7
20260508152305 58 350 0.9 3.5 0.00 0.00 0.00 43 1010.7
20260508152202 58 349 0.9 3.5 0.00 0.00 0.00 44 1010.7
20260508152123 58 350 0.9 3.5 0.00 0.00 0.00 42 1010.7
20260508152023 58 344 0.9 3.5 0.00 0.00 0.00 42 1010.7
20260508151902 58 339 0.9 2.6 0.00 0.00 0.00 45 1010.7
20260508151802 58 333 0.9 2.6 0.00 0.00 0.00 44 1010.8
20260508151726 58 331 0.9 2.6 0.00 0.00 0.00 45 1010.8
20260508151602 58 323 0.9 2.6 0.00 0.00 0.00 45 1010.8
20260508151502 58 309 0.9 2.6 0.00 0.00 0.00 44 1010.8
20260508151402 58 304 0.9 2.6 0.00 0.00 0.00 43 1010.8
20260508151323 58 291 0.9 2.6 0.00 0.00 0.00 43 1010.8
20260508151202 58 256 0.9 3.5 0.00 0.00 0.00 43 1010.8
20260508151102 58 246 1.7 3.5 0.00 0.00 0.00 44 1010.8
20260508151002 58 236 1.7 4.3 0.00 0.00 0.00 42 1010.8
20260508150902 58 224 1.7 4.3 0.00 0.00 0.00 44 1010.9
20260508150802 58 218 1.7 4.3 0.00 0.00 0.00 45 1010.9
20260508150723 58 218 1.7 4.3 0.00 0.00 0.00 45 1010.9
20260508150623 58 217 1.7 4.3 0.00 0.00 0.00 48 1010.8
20260508150502 58 216 1.7 4.3 0.00 0.00 0.00 48 1010.9
20260508150402 57 212 1.7 4.3 0.00 0.00 0.00 49 1010.9
20260508150302 57 209 0.9 4.3 0.00 0.00 0.00 45 1010.8
20260508150202 58 206 0.9 4.3 0.00 0.00 0.00 45 1010.8
20260508150002 58 197 0.9 3.5 0.00 0.00 0.00 47 1010.8
20260508145923 58 205 0.9 3.5 0.00 0.00 0.00 45 1010.8
20260508145802 57 202 0.9 3.5 0.00 0.00 0.00 48 1010.8
20260508145723 57 198 0.9 3.5 0.00 0.00 0.00 48 1010.8
20260508145602 57 194 0.9 3.5 0.00 0.00 0.00 51 1010.8
20260508145523 57 189 0.9 3.5 0.00 0.00 0.00 51 1010.8
20260508145402 57 195 0.9 3.5 0.00 0.00 0.00 49 1010.9
20260508145306 57 196 0.9 3.5 0.00 0.00 0.00 48 1010.9
20260508145202 57 201 0.9 3.5 0.00 0.00 0.00 49 1010.9
20260508145102 56 203 0.9 4.3 0.00 0.00 0.00 50 1011.0
20260508145002 56 202 0.9 4.3 0.00 0.00 0.00 46 1010.9
20260508144902 56 201 0.9 4.3 0.00 0.00 0.00 49 1010.9
20260508144802 56 204 0.9 4.3 0.00 0.00 0.00 47 1010.9
20260508144702 56 208 0.9 4.3 0.00 0.00 0.00 48 1010.9
20260508144602 56 210 0.9 4.3 0.00 0.00 0.00 49 1010.9
20260508144523 56 213 0.9 4.3 0.00 0.00 0.00 49 1010.9
20260508144402 56 215 0.9 4.3 0.00 0.00 0.00 50 1010.9
20260508144302 56 221 0.9 4.3 0.00 0.00 0.00 50 1011.0
20260508144202 57 222 0.9 4.3 0.00 0.00 0.00 50 1010.9
20260508144102 57 227 0.9 4.3 0.00 0.00 0.00 49 1010.9
20260508144002 57 232 0.9 2.6 0.00 0.00 0.00 52 1010.9
20260508143902 57 231 0.9 2.6 0.00 0.00 0.00 54 1010.9
20260508143823 57 231 0.9 2.6 0.00 0.00 0.00 54 1011.0
20260508143702 57 233 0.9 2.6 0.00 0.00 0.00 56 1011.0
20260508143602 56 237 0.9 2.6 0.00 0.00 0.00 56 1011.0
20260508143502 56 244 0.9 2.6 0.00 0.00 0.00 54 1011.0
20260508143423 56 244 0.9 2.6 0.00 0.00 0.00 53 1011.0
20260508143302 56 235 0.9 2.6 0.00 0.00 0.00 52 1011.0
20260508143202 56 229 0.9 2.6 0.00 0.00 0.00 50 1011.0
20260508143102 56 226 0.9 2.6 0.00 0.00 0.00 51 1011.0
20260508143002 56 231 0.9 1.7 0.00 0.00 0.00 52 1011.1
20260508142902 56 226 0.9 2.6 0.00 0.00 0.00 50 1011.1
20260508142802 56 225 0.9 2.6 0.00 0.00 0.00 51 1011.1
20260508142702 56 224 0.9 2.6 0.00 0.00 0.00 52 1011.1
20260508142602 56 223 0.9 3.5 0.00 0.00 0.00 52 1011.1
20260508142502 56 216 0.9 3.5 0.00 0.00 0.00 55 1011.1
20260508142423 56 215 0.9 3.5 0.00 0.00 0.00 53 1011.1
20260508142306 55 215 0.9 3.5 0.00 0.00 0.00 51 1011.2
20260508142202 55 218 0.9 3.5 0.00 0.00 0.00 52 1011.1
20260508142102 55 217 0.9 3.5 0.00 0.00 0.00 52 1011.1
20260508142023 55 216 0.9 3.5 0.00 0.00 0.00 52 1011.2
20260508141923 55 216 0.9 3.5 0.00 0.00 0.00 55 1011.2
20260508141823 55 216 0.9 3.5 0.00 0.00 0.00 56 1011.2
20260508141702 55 216 0.9 3.5 0.00 0.00 0.00 53 1011.2
20260508141602 55 219 0.9 2.6 0.00 0.00 0.00 54 1011.2
20260508141502 55 225 0.9 2.6 0.00 0.00 0.00 52 1011.2
20260508141402 55 227 0.9 2.6 0.00 0.00 0.00 54 1011.2
20260508141302 55 227 0.9 2.6 0.00 0.00 0.00 53 1011.2
20260508141202 55 226 0.9 2.6 0.00 0.00 0.00 53 1011.2
20260508141102 55 225 0.9 2.6 0.00 0.00 0.00 53 1011.2
20260508141005 55 235 0.0 1.7 0.00 0.00 0.00 56 1011.2
20260508140902 55 236 0.9 1.7 0.00 0.00 0.00 55 1011.2
20260508140802 55 237 0.9 1.7 0.00 0.00 0.00 55 1011.2
20260508140702 55 235 0.9 1.7 0.00 0.00 0.00 55 1011.2
20260508140602 54 224 0.9 1.7 0.00 0.00 0.00 56 1011.2
20260508140502 54 224 0.9 2.6 0.00 0.00 0.00 57 1011.2
20260508140423 54 223 0.9 2.6 0.00 0.00 0.00 55 1011.2
20260508140302 54 225 0.9 2.6 0.00 0.00 0.00 54 1011.2
20260508140202 54 226 0.9 2.6 0.00 0.00 0.00 55 1011.2
20260508140123 54 222 0.9 2.6 0.00 0.00 0.00 56 1011.2
20260508140002 54 221 0.9 2.6 0.00 0.00 0.00 55 1011.2
20260508135902 53 221 0.9 2.6 0.00 0.00 0.00 57 1011.2
20260508135802 53 222 0.9 2.6 0.00 0.00 0.00 59 1011.2
20260508135723 53 222 0.9 2.6 0.00 0.00 0.00 59 1011.2
20260508135602 53 223 0.9 2.6 0.00 0.00 0.00 56 1011.3
20260508135502 53 220 0.9 2.6 0.00 0.00 0.00 58 1011.3
20260508135402 53 217 0.9 2.6 0.00 0.00 0.00 55 1011.3
20260508135305 53 216 0.9 2.6 0.00 0.00 0.00 56 1011.3
20260508135202 53 215 0.9 2.6 0.00 0.00 0.00 58 1011.3
20260508135102 53 222 0.0 1.7 0.00 0.00 0.00 59 1011.4
20260508135002 53 221 0.0 1.7 0.00 0.00 0.00 57 1011.4
20260508134902 53 218 0.0 1.7 0.00 0.00 0.00 59 1011.3
20260508134802 53 212 0.0 1.7 0.00 0.00 0.00 60 1011.4
20260508134702 52 212 0.9 1.7 0.00 0.00 0.00 64 1011.4
20260508134602 52 210 0.9 2.6 0.00 0.00 0.00 63 1011.4
20260508134502 52 208 0.9 2.6 0.00 0.00 0.00 63 1011.4
20260508134402 52 207 0.9 2.6 0.00 0.00 0.00 67 1011.4
20260508134302 52 208 0.9 2.6 0.00 0.00 0.00 67 1011.4
20260508134223 52 208 0.9 2.6 0.00 0.00 0.00 65 1011.4
20260508134102 52 208 0.9 2.6 0.00 0.00 0.00 67 1011.5
20260508134002 52 208 0.9 2.6 0.00 0.00 0.00 68 1011.5
20260508133902 52 208 0.9 2.6 0.00 0.00 0.00 67 1011.5
20260508133802 52 209 0.9 2.6 0.00 0.00 0.00 66 1011.5
20260508133702 52 207 0.9 2.6 0.00 0.00 0.00 67 1011.5
20260508133623 52 206 0.9 1.7 0.00 0.00 0.00 68 1011.6
20260508133502 52 205 0.9 1.7 0.00 0.00 0.00 69 1011.6
20260508133423 52 205 0.9 1.7 0.00 0.00 0.00 69 1011.6
20260508133302 52 201 0.9 1.7 0.00 0.00 0.00 70 1011.5
20260508133202 52 199 0.9 1.7 0.00 0.00 0.00 71 1011.5
20260508133102 51 198 0.9 1.7 0.00 0.00 0.00 71 1011.5
20260508133002 51 198 0.9 1.7 0.00 0.00 0.00 70 1011.5
20260508132902 51 202 0.9 1.7 0.00 0.00 0.00 71 1011.5
20260508132802 51 204 0.9 1.7 0.00 0.00 0.00 71 1011.5
20260508132702 51 205 0.9 1.7 0.00 0.00 0.00 72 1011.5
20260508132602 51 205 0.9 1.7 0.00 0.00 0.00 72 1011.5
20260508132502 51 203 0.9 1.7 0.00 0.00 0.00 73 1011.5
20260508132402 50 199 0.9 1.7 0.00 0.00 0.00 74 1011.5
20260508132306 50 197 0.9 2.6 0.00 0.00 0.00 74 1011.5
20260508132223 50 193 0.9 2.6 0.00 0.00 0.00 74 1011.5
20260508132102 50 192 0.9 2.6 0.00 0.00 0.00 73 1011.4
20260508132002 50 190 0.9 2.6 0.00 0.00 0.00 73 1011.4
20260508131902 50 190 0.9 2.6 0.00 0.00 0.00 74 1011.4
20260508131802 50 194 0.9 2.6 0.00 0.00 0.00 75 1011.4
20260508131702 49 199 0.9 2.6 0.00 0.00 0.00 74 1011.5
20260508131623 49 201 0.9 2.6 0.00 0.00 0.00 74 1011.5
20260508131502 49 207 0.9 2.6 0.00 0.00 0.00 75 1011.5
20260508131402 49 213 0.9 2.6 0.00 0.00 0.00 77 1011.5
20260508131302 49 219 0.9 1.7 0.00 0.00 0.00 77 1011.5
20260508131202 49 224 0.0 1.7 0.00 0.00 0.00 78 1011.5
20260508131123 49 224 0.0 1.7 0.00 0.00 0.00 78 1011.5
20260508131002 48 223 0.0 1.7 0.00 0.00 0.00 78 1011.4
20260508130902 48 218 0.0 1.7 0.00 0.00 0.00 77 1011.5
20260508130802 48 214 0.0 1.7 0.00 0.00 0.00 77 1011.5
20260508130702 48 211 0.0 1.7 0.00 0.00 0.00 78 1011.5
20260508130602 48 173 0.0 0.9 0.00 0.00 0.00 78 1011.5
20260508130502 48 115 0.0 1.7 0.00 0.00 0.00 78 1011.5
20260508130402 47 114 0.0 1.7 0.00 0.00 0.00 78 1011.5
20260508130302 47 113 0.0 1.7 0.00 0.00 0.00 78 1011.5
20260508130202 47 113 0.0 1.7 0.00 0.00 0.00 78 1011.5
20260508130023 47 103 0.0 1.7 0.00 0.00 0.00 79 1011.5
20260508125923 47 91 0.0 1.7 0.00 0.00 0.00 79 1011.5
20260508125802 47 72 0.0 1.7 0.00 0.00 0.00 80 1011.5
20260508125702 47 74 0.0 1.7 0.00 0.00 0.00 80 1011.5
20260508125623 47 90 0.0 1.7 0.00 0.00 0.00 80 1011.5
20260508125502 46 139 0.0 0.9 0.00 0.00 0.00 81 1011.5
20260508125402 46 142 0.0 0.9 0.00 0.00 0.00 81 1011.5
20260508125323 46 146 0.0 0.9 0.00 0.00 0.00 81 1011.5
20260508125202 46 173 0.0 0.9 0.00 0.00 0.00 81 1011.5
20260508125102 46 180 0.0 0.9 0.00 0.00 0.00 82 1011.5
20260508125002 46 180 0.0 0.9 0.00 0.00 0.00 82 1011.5
20260508124902 46 176 0.0 0.9 0.00 0.00 0.00 82 1011.5
20260508124802 46 185 0.0 0.9 0.00 0.00 0.00 83 1011.5
20260508124702 46 191 0.0 0.9 0.00 0.00 0.00 83 1011.5
20260508124602 46 181 0.0 0.9 0.00 0.00 0.00 83 1011.4
20260508124502 46 181 0.0 0.9 0.00 0.00 0.00 83 1011.4
20260508124402 46 181 0.0 0.9 0.00 0.00 0.00 83 1011.5
20260508124323 46 181 0.0 0.9 0.00 0.00 0.00 83 1011.5
20260508124202 45 75 0.0 0.9 0.00 0.00 0.00 84 1011.4
20260508124123 45 75 0.0 0.9 0.00 0.00 0.00 84 1011.4
20260508124002 45 75 0.0 0.9 0.00 0.00 0.00 85 1011.4
20260508123923 45 75 0.0 0.9 0.00 0.00 0.00 86 1011.4
20260508123802 45 75 0.0 0.9 0.00 0.00 0.00 87 1011.4
20260508123702 45 75 0.0 0.9 0.00 0.00 0.00 87 1011.4
20260508123623 45 75 0.0 0.9 0.00 0.00 0.00 87 1011.3
20260508123523 44 74 0.0 0.9 0.00 0.00 0.00 87 1011.3
20260508123402 44 76 0.0 0.9 0.00 0.00 0.00 87 1011.3
20260508123302 44 76 0.0 0.9 0.00 0.00 0.00 87 1011.3
20260508123202 44 76 0.0 0.9 0.00 0.00 0.00 87 1011.3
20260508123102 44 76 0.0 0.9 0.00 0.00 0.00 88 1011.3
20260508123002 44 92 0.0 0.9 0.00 0.00 0.00 89 1011.3
20260508122902 44 106 0.0 0.9 0.00 0.00 0.00 89 1011.3
20260508122823 43 106 0.0 0.9 0.00 0.00 0.00 90 1011.3
20260508122702 43 108 0.0 0.9 0.00 0.00 0.00 90 1011.2
20260508122602 43 115 0.0 0.9 0.00 0.00 0.00 91 1011.2
20260508122502 43 160 0.0 0.9 0.00 0.00 0.00 92 1011.2
20260508122402 43 204 0.0 0.9 0.00 0.00 0.00 93 1011.2
20260508122306 42 204 0.0 0.9 0.00 0.00 0.00 93 1011.2
20260508122202 42 204 0.0 0.9 0.00 0.00 0.00 93 1011.2
20260508122102 42 204 0.0 0.9 0.00 0.00 0.00 93 1011.2
20260508122002 42 203 0.0 0.9 0.00 0.00 0.00 94 1011.2
20260508121902 42 0 0.0 0.0 0.00 0.00 0.00 94 1011.2
20260508121823 42 0 0.0 0.0 0.00 0.00 0.00 94 1011.1
20260508121723 42 0 0.0 0.0 0.00 0.00 0.00 94 1011.1
20260508121602 41 0 0.0 0.0 0.00 0.00 0.00 94 1011.2
20260508121502 41 0 0.0 0.0 0.00 0.00 0.00 94 1011.1
20260508121402 41 0 0.0 0.0 0.00 0.00 0.00 94 1011.1
20260508121302 41 0 0.0 0.0 0.00 0.00 0.00 94 1011.1
20260508121202 40 0 0.0 0.0 0.00 0.00 0.00 94 1011.1
20260508121102 40 0 0.0 0.0 0.00 0.00 0.00 94 1011.1
20260508121002 40 0 0.0 0.0 0.00 0.00 0.00 94 1011.1
20260508120902 40 0 0.0 0.0 0.00 0.00 0.00 94 1011.1
20260508120823 40 0 0.0 0.0 0.00 0.00 0.00 94 1011.1
20260508120702 40 0 0.0 0.0 0.00 0.00 0.00 94 1011.1
20260508120602 39 0 0.0 0.0 0.00 0.00 0.00 94 1011.1
20260508120523 39 0 0.0 0.0 0.00 0.00 0.00 94 1011.1
20260508120402 39 0 0.0 0.0 0.00 0.00 0.00 94 1011.1
20260508120302 39 0 0.0 0.0 0.00 0.00 0.00 94 1011.1
20260508120202 39 0 0.0 0.0 0.00 0.00 0.00 94 1011.1
20260508120023 38 0 0.0 0.0 0.00 0.00 0.00 94 1011.1
20260508115902 38 0 0.0 0.0 0.00 0.00 0.00 94 1011.1
20260508115802 38 0 0.0 0.0 0.00 0.00 0.00 94 1011.1
20260508115702 38 0 0.0 0.0 0.00 0.00 0.00 94 1011.1
20260508115602 38 0 0.0 0.0 0.00 0.00 0.00 93 1011.1
20260508115502 38 0 0.0 0.0 0.00 0.00 0.00 93 1011.1
20260508115402 37 0 0.0 0.0 0.00 0.00 0.00 93 1011.1
20260508115306 37 0 0.0 0.0 0.00 0.00 0.00 93 1011.1
20260508115202 37 0 0.0 0.0 0.00 0.00 0.00 93 1011.0
20260508115102 37 0 0.0 0.0 0.00 0.00 0.00 93 1011.0
20260508115023 37 0 0.0 0.0 0.00 0.00 0.00 93 1011.0
20260508114902 37 0 0.0 0.0 0.00 0.00 0.00 93 1011.0
20260508114823 37 0 0.0 0.0 0.00 0.00 0.00 93 1011.0
20260508114702 36 0 0.0 0.0 0.00 0.00 0.00 93 1011.0
20260508114602 36 0 0.0 0.0 0.00 0.00 0.00 93 1011.0
20260508114502 36 0 0.0 0.0 0.00 0.00 0.00 93 1010.9
20260508114402 36 0 0.0 0.0 0.00 0.00 0.00 93 1010.9
20260508114302 36 0 0.0 0.0 0.00 0.00 0.00 93 1010.9
20260508114202 36 0 0.0 0.0 0.00 0.00 0.00 93 1010.9
20260508114102 36 0 0.0 0.0 0.00 0.00 0.00 93 1010.9
20260508114002 36 0 0.0 0.0 0.00 0.00 0.00 93 1010.9
20260508113902 36 0 0.0 0.0 0.00 0.00 0.00 93 1010.8
20260508113802 36 0 0.0 0.0 0.00 0.00 0.00 93 1010.8
20260508113702 36 0 0.0 0.0 0.00 0.00 0.00 93 1010.8
20260508113602 36 0 0.0 0.0 0.00 0.00 0.00 93 1010.8
20260508113523 36 0 0.0 0.0 0.00 0.00 0.00 93 1010.8
20260508113402 35 0 0.0 0.0 0.00 0.00 0.00 93 1010.7
20260508113302 35 0 0.0 0.0 0.00 0.00 0.00 93 1010.7
20260508113202 35 0 0.0 0.0 0.00 0.00 0.00 92 1010.7
20260508113102 35 0 0.0 0.0 0.00 0.00 0.00 92 1010.7
20260508113002 35 0 0.0 0.0 0.00 0.00 0.00 92 1010.7
20260508112902 35 0 0.0 0.0 0.00 0.00 0.00 92 1010.8
20260508112802 35 0 0.0 0.0 0.00 0.00 0.00 92 1010.8
20260508112723 35 0 0.0 0.0 0.00 0.00 0.00 92 1010.7
20260508112602 35 0 0.0 0.0 0.00 0.00 0.00 92 1010.8
20260508112502 35 0 0.0 0.0 0.00 0.00 0.00 92 1010.8
20260508112402 35 0 0.0 0.0 0.00 0.00 0.00 92 1010.7
20260508112306 35 0 0.0 0.0 0.00 0.00 0.00 92 1010.7
20260508112202 35 0 0.0 0.0 0.00 0.00 0.00 92 1010.6
20260508112102 35 0 0.0 0.0 0.00 0.00 0.00 92 1010.6
20260508112002 35 0 0.0 0.0 0.00 0.00 0.00 92 1010.6
20260508111902 35 0 0.0 0.0 0.00 0.00 0.00 92 1010.6
20260508111802 35 0 0.0 0.0 0.00 0.00 0.00 92 1010.6
20260508111702 35 0 0.0 0.0 0.00 0.00 0.00 92 1010.6
20260508111602 35 0 0.0 0.0 0.00 0.00 0.00 92 1010.6
20260508111502 35 0 0.0 0.0 0.00 0.00 0.00 92 1010.6
20260508111402 35 0 0.0 0.0 0.00 0.00 0.00 92 1010.5
20260508111302 35 0 0.0 0.0 0.00 0.00 0.00 92 1010.5
20260508111202 35 0 0.0 0.0 0.00 0.00 0.00 92 1010.5
20260508111102 35 0 0.0 0.0 0.00 0.00 0.00 92 1010.5
20260508111002 35 0 0.0 0.0 0.00 0.00 0.00 92 1010.5
20260508110902 35 0 0.0 0.0 0.00 0.00 0.00 92 1010.5
20260508110802 35 0 0.0 0.0 0.00 0.00 0.00 92 1010.5
20260508110702 35 0 0.0 0.0 0.00 0.00 0.00 92 1010.5
20260508110602 35 0 0.0 0.0 0.00 0.00 0.00 92 1010.6
20260508110502 35 0 0.0 0.0 0.00 0.00 0.00 92 1010.6
20260508110402 35 0 0.0 0.0 0.00 0.00 0.00 92 1010.5
20260508110323 34 0 0.0 0.0 0.00 0.00 0.00 92 1010.5
20260508110223 35 0 0.0 0.0 0.00 0.00 0.00 92 1010.5
20260508110023 34 0 0.0 0.0 0.00 0.00 0.00 92 1010.5
20260508105902 35 0 0.0 0.0 0.00 0.00 0.00 92 1010.6
20260508105802 35 0 0.0 0.0 0.00 0.00 0.00 92 1010.6
20260508105702 34 0 0.0 0.0 0.00 0.00 0.00 92 1010.6
20260508105602 35 0 0.0 0.0 0.00 0.00 0.00 92 1010.6
20260508105523 34 0 0.0 0.0 0.00 0.00 0.00 92 1010.6
20260508105402 34 0 0.0 0.0 0.00 0.00 0.00 92 1010.5
20260508105305 34 0 0.0 0.0 0.00 0.00 0.00 92 1010.6
20260508105202 34 0 0.0 0.0 0.00 0.00 0.00 92 1010.6
20260508105102 34 0 0.0 0.0 0.00 0.00 0.00 92 1010.5
20260508105002 34 0 0.0 0.0 0.00 0.00 0.00 92 1010.6
20260508104902 34 0 0.0 0.0 0.00 0.00 0.00 92 1010.6
20260508104802 34 0 0.0 0.0 0.00 0.00 0.00 92 1010.5
20260508104702 34 0 0.0 0.0 0.00 0.00 0.00 92 1010.5
20260508104602 34 0 0.0 0.0 0.00 0.00 0.00 92 1010.5
20260508104502 34 0 0.0 0.0 0.00 0.00 0.00 92 1010.5
20260508104402 34 0 0.0 0.0 0.00 0.00 0.00 92 1010.5
20260508104302 34 0 0.0 0.0 0.00 0.00 0.00 92 1010.4
20260508104202 34 0 0.0 0.0 0.00 0.00 0.00 92 1010.4
20260508104102 34 0 0.0 0.0 0.00 0.00 0.00 92 1010.4
20260508104002 34 0 0.0 0.0 0.00 0.00 0.00 92 1010.3
20260508103923 34 0 0.0 0.0 0.00 0.00 0.00 91 1010.3
20260508103802 34 0 0.0 0.0 0.00 0.00 0.00 91 1010.3
20260508103702 34 0 0.0 0.0 0.00 0.00 0.00 91 1010.3
20260508103602 34 0 0.0 0.0 0.00 0.00 0.00 91 1010.3
20260508103502 34 0 0.0 0.0 0.00 0.00 0.00 91 1010.3
20260508103402 34 0 0.0 0.0 0.00 0.00 0.00 91 1010.3
20260508103323 34 0 0.0 0.0 0.00 0.00 0.00 91 1010.3
20260508103223 34 0 0.0 0.0 0.00 0.00 0.00 91 1010.3
20260508103102 34 0 0.0 0.0 0.00 0.00 0.00 91 1010.3
20260508103002 34 0 0.0 0.0 0.00 0.00 0.00 91 1010.2
20260508102902 34 0 0.0 0.0 0.00 0.00 0.00 91 1010.2
20260508102802 34 0 0.0 0.0 0.00 0.00 0.00 91 1010.3
20260508102723 34 0 0.0 0.0 0.00 0.00 0.00 91 1010.3
20260508102602 34 0 0.0 0.0 0.00 0.00 0.00 91 1010.2
20260508102502 34 0 0.0 0.0 0.00 0.00 0.00 91 1010.3
20260508102402 35 0 0.0 0.0 0.00 0.00 0.00 91 1010.3
20260508102306 35 0 0.0 0.0 0.00 0.00 0.00 91 1010.3
20260508102202 35 0 0.0 0.0 0.00 0.00 0.00 91 1010.3
20260508102102 35 0 0.0 0.0 0.00 0.00 0.00 91 1010.3
20260508102002 35 0 0.0 0.0 0.00 0.00 0.00 91 1010.3
20260508101902 35 0 0.0 0.0 0.00 0.00 0.00 91 1010.3
20260508101823 35 0 0.0 0.0 0.00 0.00 0.00 91 1010.3
20260508101702 35 0 0.0 0.0 0.00 0.00 0.00 91 1010.3
20260508101623 35 0 0.0 0.0 0.00 0.00 0.00 91 1010.3
20260508101502 35 0 0.0 0.0 0.00 0.00 0.00 91 1010.3
20260508101402 34 0 0.0 0.0 0.00 0.00 0.00 91 1010.3
20260508101302 35 0 0.0 0.0 0.00 0.00 0.00 91 1010.3
20260508101202 35 0 0.0 0.0 0.00 0.00 0.00 91 1010.3
20260508101123 35 0 0.0 0.0 0.00 0.00 0.00 91 1010.3
20260508101002 35 0 0.0 0.0 0.00 0.00 0.00 91 1010.3
20260508100902 35 0 0.0 0.0 0.00 0.00 0.00 91 1010.3
20260508100802 35 0 0.0 0.0 0.00 0.00 0.00 91 1010.3
20260508100723 35 0 0.0 0.0 0.00 0.00 0.00 91 1010.3
20260508100602 35 0 0.0 0.0 0.00 0.00 0.00 91 1010.3
20260508100502 35 0 0.0 0.0 0.00 0.00 0.00 91 1010.3
20260508100423 35 0 0.0 0.0 0.00 0.00 0.00 91 1010.3
20260508100302 35 0 0.0 0.0 0.00 0.00 0.00 91 1010.3
20260508100223 35 0 0.0 0.0 0.00 0.00 0.00 91 1010.3
20260508100123 35 0 0.0 0.0 0.00 0.00 0.00 91 1010.3
20260508100002 35 0 0.0 0.0 0.00 0.00 0.00 91 1010.3
20260508095902 35 0 0.0 0.0 0.00 0.00 0.00 91 1010.3
20260508095823 35 0 0.0 0.0 0.00 0.00 0.00 91 1010.3
20260508095702 35 0 0.0 0.0 0.00 0.00 0.00 91 1010.3
20260508095602 35 0 0.0 0.0 0.00 0.00 0.00 91 1010.3
20260508095502 35 0 0.0 0.0 0.00 0.00 0.00 91 1010.3
20260508095402 35 0 0.0 0.0 0.00 0.00 0.00 91 1010.3
20260508095306 35 0 0.0 0.0 0.00 0.00 0.00 91 1010.3
20260508095202 35 0 0.0 0.0 0.00 0.00 0.00 91 1010.3
20260508095102 35 0 0.0 0.0 0.00 0.00 0.00 90 1010.3
20260508095003 35 0 0.0 0.0 0.00 0.00 0.00 90 1010.3
20260508094923 35 0 0.0 0.0 0.00 0.00 0.00 90 1010.3
20260508094802 35 0 0.0 0.0 0.00 0.00 0.00 90 1010.4
20260508094723 35 0 0.0 0.0 0.00 0.00 0.00 91 1010.4
20260508094602 35 0 0.0 0.0 0.00 0.00 0.00 91 1010.3
20260508094502 36 0 0.0 0.0 0.00 0.00 0.00 91 1010.3
20260508094402 36 0 0.0 0.0 0.00 0.00 0.00 91 1010.3
20260508094302 36 0 0.0 0.0 0.00 0.00 0.00 91 1010.3
20260508094202 36 0 0.0 0.0 0.00 0.00 0.00 91 1010.3
20260508094102 36 0 0.0 0.0 0.00 0.00 0.00 91 1010.3
20260508094002 36 0 0.0 0.0 0.00 0.00 0.00 90 1010.3
20260508093923 36 0 0.0 0.0 0.00 0.00 0.00 90 1010.3
20260508093802 36 0 0.0 0.0 0.00 0.00 0.00 90 1010.3
20260508093702 36 0 0.0 0.0 0.00 0.00 0.00 90 1010.3
20260508093602 36 0 0.0 0.0 0.00 0.00 0.00 90 1010.3
20260508093502 36 0 0.0 0.0 0.00 0.00 0.00 90 1010.3
20260508093402 36 0 0.0 0.0 0.00 0.00 0.00 90 1010.3
20260508093302 36 0 0.0 0.0 0.00 0.00 0.00 90 1010.3
20260508093202 36 0 0.0 0.0 0.00 0.00 0.00 90 1010.3
20260508093102 36 0 0.0 0.0 0.00 0.00 0.00 90 1010.3
20260508093002 36 0 0.0 0.0 0.00 0.00 0.00 90 1010.3
20260508092923 36 0 0.0 0.0 0.00 0.00 0.00 90 1010.3
20260508092802 36 0 0.0 0.0 0.00 0.00 0.00 90 1010.3
20260508092702 36 0 0.0 0.0 0.00 0.00 0.00 90 1010.3
20260508092602 36 0 0.0 0.0 0.00 0.00 0.00 90 1010.3
20260508092502 36 0 0.0 0.0 0.00 0.00 0.00 90 1010.4
20260508092402 36 0 0.0 0.0 0.00 0.00 0.00 90 1010.4
20260508092311 36 0 0.0 0.0 0.00 0.00 0.00 90 1010.4
20260508092202 36 0 0.0 0.0 0.00 0.00 0.00 90 1010.5
20260508092102 36 0 0.0 0.0 0.00 0.00 0.00 90 1010.5
20260508092002 36 0 0.0 0.0 0.00 0.00 0.00 90 1010.4
20260508091923 36 0 0.0 0.0 0.00 0.00 0.00 90 1010.4
20260508091823 36 0 0.0 0.0 0.00 0.00 0.00 90 1010.4
20260508091702 36 0 0.0 0.0 0.00 0.00 0.00 90 1010.4
20260508091623 36 0 0.0 0.0 0.00 0.00 0.00 90 1010.4
20260508091502 36 0 0.0 0.0 0.00 0.00 0.00 90 1010.4
20260508091402 36 0 0.0 0.0 0.00 0.00 0.00 90 1010.4
20260508091302 36 0 0.0 0.0 0.00 0.00 0.00 90 1010.5
20260508091202 36 0 0.0 0.0 0.00 0.00 0.00 90 1010.5
20260508091102 36 0 0.0 0.0 0.00 0.00 0.00 90 1010.5
20260508091002 36 0 0.0 0.0 0.00 0.00 0.00 90 1010.5
20260508090902 36 0 0.0 0.0 0.00 0.00 0.00 90 1010.5
20260508090823 36 0 0.0 0.0 0.00 0.00 0.00 90 1010.5
20260508090702 37 0 0.0 0.0 0.00 0.00 0.00 90 1010.5
20260508090602 37 0 0.0 0.0 0.00 0.00 0.00 90 1010.5
20260508090502 37 0 0.0 0.0 0.00 0.00 0.00 90 1010.5
20260508090402 37 0 0.0 0.0 0.00 0.00 0.00 90 1010.5
20260508090323 37 0 0.0 0.0 0.00 0.00 0.00 90 1010.5
20260508090202 37 0 0.0 0.0 0.00 0.00 0.00 89 1010.5
20260508090002 37 0 0.0 0.0 0.00 0.00 0.00 89 1010.5
20260508085902 37 0 0.0 0.0 0.00 0.00 0.00 89 1010.5
20260508085802 37 0 0.0 0.0 0.00 0.00 0.00 89 1010.5
20260508085723 37 0 0.0 0.0 0.00 0.00 0.00 89 1010.5
20260508085623 37 0 0.0 0.0 0.00 0.00 0.00 89 1010.5
20260508085523 37 0 0.0 0.0 0.00 0.00 0.00 89 1010.5
20260508085402 37 0 0.0 0.0 0.00 0.00 0.00 89 1010.5
20260508085306 37 0 0.0 0.0 0.00 0.00 0.00 89 1010.5
20260508085202 37 0 0.0 0.0 0.00 0.00 0.00 89 1010.5
20260508085102 37 0 0.0 0.0 0.00 0.00 0.00 89 1010.5
20260508085002 37 0 0.0 0.0 0.00 0.00 0.00 89 1010.4
20260508084902 37 0 0.0 0.0 0.00 0.00 0.00 89 1010.5
20260508084802 37 0 0.0 0.0 0.00 0.00 0.00 89 1010.5
20260508084702 37 0 0.0 0.0 0.00 0.00 0.00 89 1010.4
20260508084602 37 0 0.0 0.0 0.00 0.00 0.00 89 1010.3
20260508084502 37 0 0.0 0.0 0.00 0.00 0.00 89 1010.3
20260508084402 38 0 0.0 0.0 0.00 0.00 0.00 89 1010.3
20260508084302 38 0 0.0 0.0 0.00 0.00 0.00 89 1010.3
20260508084202 38 0 0.0 0.0 0.00 0.00 0.00 89 1010.3
20260508084123 38 0 0.0 0.0 0.00 0.00 0.00 89 1010.3
20260508084023 38 0 0.0 0.0 0.00 0.00 0.00 89 1010.4
20260508083923 38 0 0.0 0.0 0.00 0.00 0.00 89 1010.5
20260508083823 38 0 0.0 0.0 0.00 0.00 0.00 89 1010.5
20260508083702 38 0 0.0 0.0 0.00 0.00 0.00 89 1010.5
20260508083602 38 0 0.0 0.0 0.00 0.00 0.00 88 1010.5
20260508083502 38 0 0.0 0.0 0.00 0.00 0.00 88 1010.5
20260508083402 38 0 0.0 0.0 0.00 0.00 0.00 88 1010.5
20260508083302 38 0 0.0 0.0 0.00 0.00 0.00 88 1010.5
20260508083202 38 0 0.0 0.0 0.00 0.00 0.00 88 1010.5
20260508083102 38 0 0.0 0.0 0.00 0.00 0.00 88 1010.5
20260508083024 38 0 0.0 0.0 0.00 0.00 0.00 88 1010.5
20260508082902 38 0 0.0 0.0 0.00 0.00 0.00 88 1010.5
20260508082802 38 0 0.0 0.0 0.00 0.00 0.00 88 1010.5
20260508082702 38 0 0.0 0.0 0.00 0.00 0.00 88 1010.5
20260508082602 38 0 0.0 0.0 0.00 0.00 0.00 88 1010.5
20260508082502 38 0 0.0 0.0 0.00 0.00 0.00 88 1010.5
20260508082402 38 0 0.0 0.0 0.00 0.00 0.00 88 1010.5
20260508082306 38 0 0.0 0.0 0.00 0.00 0.00 88 1010.6
20260508082202 39 0 0.0 0.0 0.00 0.00 0.00 88 1010.6
20260508082102 39 0 0.0 0.0 0.00 0.00 0.00 88 1010.5
20260508082002 39 0 0.0 0.0 0.00 0.00 0.00 88 1010.5
20260508081923 39 0 0.0 0.0 0.00 0.00 0.00 88 1010.5
20260508081802 39 0 0.0 0.0 0.00 0.00 0.00 88 1010.6
20260508081702 39 0 0.0 0.0 0.00 0.00 0.00 88 1010.6
20260508081602 39 0 0.0 0.0 0.00 0.00 0.00 88 1010.6
20260508081502 39 0 0.0 0.0 0.00 0.00 0.00 88 1010.5
20260508081402 39 0 0.0 0.0 0.00 0.00 0.00 88 1010.5
20260508081302 39 0 0.0 0.0 0.00 0.00 0.00 88 1010.5
20260508081202 39 0 0.0 0.0 0.00 0.00 0.00 88 1010.5
20260508081102 39 0 0.0 0.0 0.00 0.00 0.00 88 1010.5
20260508081002 39 0 0.0 0.0 0.00 0.00 0.00 88 1010.5
20260508080902 39 0 0.0 0.0 0.00 0.00 0.00 88 1010.5
20260508080802 39 0 0.0 0.0 0.00 0.00 0.00 88 1010.5
20260508080723 39 0 0.0 0.0 0.00 0.00 0.00 88 1010.5
20260508080602 39 0 0.0 0.0 0.00 0.00 0.00 88 1010.5
20260508080502 39 0 0.0 0.0 0.00 0.00 0.00 88 1010.5
20260508080402 39 0 0.0 0.0 0.00 0.00 0.00 88 1010.5
20260508080302 39 0 0.0 0.0 0.00 0.00 0.00 88 1010.5
20260508080202 39 0 0.0 0.0 0.00 0.00 0.00 87 1010.5
20260508080002 40 0 0.0 0.0 0.00 0.00 0.00 87 1010.5
20260508075902 40 0 0.0 0.0 0.00 0.00 0.00 87 1010.5
20260508075802 40 0 0.0 0.0 0.00 0.00 0.00 87 1010.5
20260508075702 40 0 0.0 0.0 0.00 0.00 0.00 87 1010.6
20260508075623 40 0 0.0 0.0 0.00 0.00 0.00 87 1010.6
20260508075502 40 0 0.0 0.0 0.00 0.00 0.00 86 1010.6
20260508075423 40 0 0.0 0.0 0.00 0.00 0.00 86 1010.6
20260508075307 40 0 0.0 0.0 0.00 0.00 0.00 86 1010.6
20260508075202 40 0 0.0 0.0 0.00 0.00 0.00 87 1010.6
20260508075123 40 0 0.0 0.0 0.00 0.00 0.00 87 1010.6
20260508075002 40 0 0.0 0.0 0.00 0.00 0.00 87 1010.6
20260508074902 40 0 0.0 0.0 0.00 0.00 0.00 87 1010.6
20260508074802 40 0 0.0 0.0 0.00 0.00 0.00 87 1010.5
20260508074702 40 0 0.0 0.0 0.00 0.00 0.00 86 1010.5
20260508074602 40 0 0.0 0.0 0.00 0.00 0.00 86 1010.5
20260508074502 40 0 0.0 0.0 0.00 0.00 0.00 86 1010.6
20260508074402 41 0 0.0 0.0 0.00 0.00 0.00 86 1010.6
20260508074302 41 0 0.0 0.0 0.00 0.00 0.00 86 1010.6
20260508074223 41 0 0.0 0.0 0.00 0.00 0.00 86 1010.6
20260508074102 41 0 0.0 0.0 0.00 0.00 0.00 86 1010.6
20260508074002 41 0 0.0 0.0 0.00 0.00 0.00 86 1010.6
20260508073902 41 0 0.0 0.0 0.00 0.00 0.00 86 1010.6
20260508073802 41 0 0.0 0.0 0.00 0.00 0.00 86 1010.6
20260508073702 41 0 0.0 0.0 0.00 0.00 0.00 86 1010.5
20260508073602 41 0 0.0 0.0 0.00 0.00 0.00 86 1010.5
20260508073502 41 0 0.0 0.0 0.00 0.00 0.00 86 1010.6
20260508073402 41 0 0.0 0.0 0.00 0.00 0.00 86 1010.7
20260508073302 41 0 0.0 0.0 0.00 0.00 0.00 86 1010.7
20260508073202 41 0 0.0 0.0 0.00 0.00 0.00 86 1010.7
20260508073102 41 0 0.0 0.0 0.00 0.00 0.00 86 1010.7
20260508073002 41 0 0.0 0.0 0.00 0.00 0.00 86 1010.6
20260508072902 42 0 0.0 0.0 0.00 0.00 0.00 86 1010.5
20260508072802 42 0 0.0 0.0 0.00 0.00 0.00 86 1010.5
20260508072702 41 0 0.0 0.0 0.00 0.00 0.00 86 1010.5
20260508072602 42 0 0.0 0.0 0.00 0.00 0.00 86 1010.5
20260508072502 42 0 0.0 0.0 0.00 0.00 0.00 86 1010.5
20260508072402 42 0 0.0 0.0 0.00 0.00 0.00 86 1010.6
20260508072306 41 0 0.0 0.0 0.00 0.00 0.00 86 1010.6
20260508072223 41 0 0.0 0.0 0.00 0.00 0.00 86 1010.7
20260508072102 41 0 0.0 0.0 0.00 0.00 0.00 86 1010.7
20260508072002 41 0 0.0 0.0 0.00 0.00 0.00 86 1010.7
20260508071902 42 0 0.0 0.0 0.00 0.00 0.00 86 1010.7
20260508071802 41 0 0.0 0.0 0.00 0.00 0.00 86 1010.7
20260508071723 41 0 0.0 0.0 0.00 0.00 0.00 86 1010.8
20260508071623 42 0 0.0 0.0 0.00 0.00 0.00 86 1010.8
20260508071502 42 0 0.0 0.0 0.00 0.00 0.00 86 1010.8
20260508071402 42 0 0.0 0.0 0.00 0.00 0.00 86 1010.7
20260508071302 42 0 0.0 0.0 0.00 0.00 0.00 86 1010.7
20260508071223 42 0 0.0 0.0 0.00 0.00 0.00 86 1010.8
20260508071102 42 0 0.0 0.0 0.00 0.00 0.00 86 1010.8
20260508071002 42 0 0.0 0.0 0.00 0.00 0.00 85 1010.8
20260508070902 42 0 0.0 0.0 0.00 0.00 0.00 85 1010.8
20260508070802 42 0 0.0 0.0 0.00 0.00 0.00 85 1010.8
20260508070702 42 0 0.0 0.0 0.00 0.00 0.00 85 1010.8
20260508070602 42 0 0.0 0.0 0.00 0.00 0.00 85 1010.8
20260508070523 42 0 0.0 0.0 0.00 0.00 0.00 85 1010.8
20260508070402 42 0 0.0 0.0 0.00 0.00 0.00 85 1010.7
20260508070323 42 0 0.0 0.0 0.00 0.00 0.00 85 1010.7
20260508070202 42 0 0.0 0.0 0.00 0.00 0.00 85 1010.8
20260508070002 42 0 0.0 0.0 0.00 0.00 0.00 85 1010.8
20260508065902 42 0 0.0 0.0 0.00 0.00 0.00 85 1010.8
20260508065802 42 0 0.0 0.0 0.00 0.00 0.00 85 1010.8
20260508065702 42 0 0.0 0.0 0.00 0.00 0.00 85 1010.8
20260508065602 42 0 0.0 0.0 0.00 0.00 0.00 85 1010.9
20260508065502 42 0 0.0 0.0 0.00 0.00 0.00 85 1010.8
20260508065423 42 0 0.0 0.0 0.00 0.00 0.00 85 1010.8
20260508065306 42 0 0.0 0.0 0.00 0.00 0.00 85 1010.8
20260508065223 42 0 0.0 0.0 0.00 0.00 0.00 85 1010.8
20260508065102 42 0 0.0 0.0 0.00 0.00 0.00 85 1010.8
20260508065002 42 0 0.0 0.0 0.00 0.00 0.00 85 1010.8
20260508064924 42 0 0.0 0.0 0.00 0.00 0.00 85 1010.8
20260508064802 42 0 0.0 0.0 0.00 0.00 0.00 85 1010.8
20260508064702 42 0 0.0 0.0 0.00 0.00 0.00 84 1010.8
20260508064602 42 0 0.0 0.0 0.00 0.00 0.00 84 1010.8
20260508064502 42 0 0.0 0.0 0.00 0.00 0.00 84 1010.7
20260508064402 42 0 0.0 0.0 0.00 0.00 0.00 85 1010.7
20260508064302 42 0 0.0 0.0 0.00 0.00 0.00 84 1010.8
20260508064202 42 0 0.0 0.0 0.00 0.00 0.00 85 1010.8
20260508064102 42 0 0.0 0.0 0.00 0.00 0.00 85 1010.8
20260508064023 42 0 0.0 0.0 0.00 0.00 0.00 85 1010.8
20260508063902 42 0 0.0 0.0 0.00 0.00 0.00 85 1010.8
20260508063802 42 0 0.0 0.0 0.00 0.00 0.00 85 1010.9
20260508063723 42 0 0.0 0.0 0.00 0.00 0.00 85 1010.9
20260508063602 42 215 0.0 0.9 0.00 0.00 0.00 84 1010.8
20260508063502 42 215 0.0 0.9 0.00 0.00 0.00 85 1010.8
20260508063402 42 215 0.0 0.9 0.00 0.00 0.00 85 1010.8
20260508063302 42 215 0.0 0.9 0.00 0.00 0.00 85 1010.8
20260508063202 42 215 0.0 0.9 0.00 0.00 0.00 85 1010.8
20260508063102 42 215 0.0 0.9 0.00 0.00 0.00 85 1010.8
20260508063002 42 215 0.0 0.9 0.00 0.00 0.00 84 1010.8
20260508062923 42 215 0.0 0.9 0.00 0.00 0.00 84 1010.8
20260508062802 42 215 0.0 0.9 0.00 0.00 0.00 84 1010.8
20260508062702 42 215 0.0 0.9 0.00 0.00 0.00 84 1010.8
20260508062602 42 0 0.0 0.0 0.00 0.00 0.00 84 1010.8
20260508062523 42 0 0.0 0.0 0.00 0.00 0.00 84 1010.8
20260508062423 42 0 0.0 0.0 0.00 0.00 0.00 84 1010.8
20260508062306 42 0 0.0 0.0 0.00 0.00 0.00 84 1010.8
20260508062202 42 0 0.0 0.0 0.00 0.00 0.00 84 1010.7
20260508062102 42 0 0.0 0.0 0.00 0.00 0.00 84 1010.7
20260508062002 42 0 0.0 0.0 0.00 0.00 0.00 84 1010.8
20260508061902 42 215 0.0 0.9 0.00 0.00 0.00 85 1010.8
20260508061802 42 215 0.0 0.9 0.00 0.00 0.00 85 1010.8
20260508061702 42 215 0.0 0.9 0.00 0.00 0.00 85 1010.8
20260508061602 42 215 0.0 0.9 0.00 0.00 0.00 85 1010.8
20260508061502 42 215 0.0 0.9 0.00 0.00 0.00 84 1010.8
20260508061402 42 215 0.0 0.9 0.00 0.00 0.00 84 1010.8
20260508061323 42 215 0.0 0.9 0.00 0.00 0.00 84 1010.8
20260508061202 42 215 0.0 0.9 0.00 0.00 0.00 84 1010.8
20260508061102 42 215 0.0 0.9 0.00 0.00 0.00 84 1010.8
20260508061002 42 215 0.0 0.9 0.00 0.00 0.00 84 1010.8
20260508060902 42 0 0.0 0.0 0.00 0.00 0.00 84 1010.8
20260508060823 42 0 0.0 0.0 0.00 0.00 0.00 84 1010.8
20260508060702 42 0 0.0 0.0 0.00 0.00 0.00 84 1010.8
20260508060602 42 0 0.0 0.0 0.00 0.00 0.00 84 1010.8
20260508060502 42 0 0.0 0.0 0.00 0.00 0.00 84 1010.8
20260508060402 42 0 0.0 0.0 0.00 0.00 0.00 83 1010.8
20260508060302 42 0 0.0 0.0 0.00 0.00 0.00 83 1010.8
20260508060202 42 0 0.0 0.0 0.00 0.00 0.00 83 1010.8
20260508060002 42 0 0.0 0.0 0.00 0.00 0.00 83 1010.9
20260508055902 42 0 0.0 0.0 0.00 0.00 0.00 83 1010.9
20260508055802 42 0 0.0 0.0 0.00 0.00 0.00 83 1010.9
20260508055702 42 0 0.0 0.0 0.00 0.00 0.00 83 1010.8
20260508055602 42 0 0.0 0.0 0.00 0.00 0.00 83 1010.9
20260508055502 42 0 0.0 0.0 0.00 0.00 0.00 83 1010.9
20260508055423 42 0 0.0 0.0 0.00 0.00 0.00 83 1010.9
20260508055305 42 0 0.0 0.0 0.00 0.00 0.00 83 1010.9
20260508055223 42 0 0.0 0.0 0.00 0.00 0.00 83 1010.9
20260508055102 42 0 0.0 0.0 0.00 0.00 0.00 83 1010.9
20260508055002 42 0 0.0 0.0 0.00 0.00 0.00 83 1010.9
20260508054923 42 0 0.0 0.0 0.00 0.00 0.00 83 1010.9
20260508054802 42 0 0.0 0.0 0.00 0.00 0.00 83 1010.9
20260508054702 42 0 0.0 0.0 0.00 0.00 0.00 83 1010.9
20260508054602 42 0 0.0 0.0 0.00 0.00 0.00 83 1010.9
20260508054523 42 0 0.0 0.0 0.00 0.00 0.00 83 1010.9
20260508054402 42 0 0.0 0.0 0.00 0.00 0.00 83 1010.9
20260508054302 42 0 0.0 0.0 0.00 0.00 0.00 83 1010.9
20260508054223 42 0 0.0 0.0 0.00 0.00 0.00 83 1010.9
20260508054102 42 0 0.0 0.0 0.00 0.00 0.00 83 1010.9
20260508054002 42 0 0.0 0.0 0.00 0.00 0.00 83 1010.9
20260508053923 42 0 0.0 0.0 0.00 0.00 0.00 83 1011.0
20260508053802 42 0 0.0 0.0 0.00 0.00 0.00 83 1010.9
20260508053702 42 0 0.0 0.0 0.00 0.00 0.00 83 1010.9
20260508053602 42 0 0.0 0.0 0.00 0.00 0.00 83 1010.9
20260508053502 42 0 0.0 0.0 0.00 0.00 0.00 83 1010.9
20260508053402 42 0 0.0 0.0 0.00 0.00 0.00 83 1010.9
20260508053323 42 0 0.0 0.0 0.00 0.00 0.00 83 1010.9
20260508053202 42 0 0.0 0.0 0.00 0.00 0.00 83 1010.9
20260508053123 42 0 0.0 0.0 0.00 0.00 0.00 83 1010.9
20260508053002 42 0 0.0 0.0 0.00 0.00 0.00 83 1011.0
20260508052923 42 0 0.0 0.0 0.00 0.00 0.00 83 1011.0
20260508052802 42 0 0.0 0.0 0.00 0.00 0.00 83 1010.9
20260508052723 42 0 0.0 0.0 0.00 0.00 0.00 83 1010.9
20260508052602 42 0 0.0 0.0 0.00 0.00 0.00 83 1010.8
20260508052502 42 0 0.0 0.0 0.00 0.00 0.00 83 1010.8
20260508052423 42 0 0.0 0.0 0.00 0.00 0.00 83 1010.8
20260508052306 42 0 0.0 0.0 0.00 0.00 0.00 83 1010.8
20260508052202 42 0 0.0 0.0 0.00 0.00 0.00 83 1010.8
20260508052102 42 0 0.0 0.0 0.00 0.00 0.00 83 1010.8
20260508052002 42 0 0.0 0.0 0.00 0.00 0.00 83 1010.9
20260508051902 42 0 0.0 0.0 0.00 0.00 0.00 83 1010.9
20260508051802 42 0 0.0 0.0 0.00 0.00 0.00 84 1010.9
20260508051702 42 0 0.0 0.0 0.00 0.00 0.00 84 1010.9
20260508051623 42 0 0.0 0.0 0.00 0.00 0.00 84 1010.9
20260508051502 42 0 0.0 0.0 0.00 0.00 0.00 83 1010.9
20260508051402 42 0 0.0 0.0 0.00 0.00 0.00 83 1010.9
20260508051302 42 0 0.0 0.0 0.00 0.00 0.00 83 1010.9
20260508051202 42 0 0.0 0.0 0.00 0.00 0.00 83 1010.9
20260508051102 42 0 0.0 0.0 0.00 0.00 0.00 83 1010.9
20260508051002 42 0 0.0 0.0 0.00 0.00 0.00 83 1010.9
20260508050902 42 0 0.0 0.0 0.00 0.00 0.00 83 1010.9
20260508050802 42 0 0.0 0.0 0.00 0.00 0.00 82 1010.9
20260508050702 42 0 0.0 0.0 0.00 0.00 0.00 82 1010.9
20260508050623 42 0 0.0 0.0 0.00 0.00 0.00 82 1010.9
20260508050502 42 0 0.0 0.0 0.00 0.00 0.00 83 1010.9
20260508050402 42 0 0.0 0.0 0.00 0.00 0.00 83 1010.9
20260508050323 42 0 0.0 0.0 0.00 0.00 0.00 83 1010.9
20260508050202 42 0 0.0 0.0 0.00 0.00 0.00 83 1010.9
20260508050002 42 0 0.0 0.0 0.00 0.00 0.00 82 1010.9
20260508045902 42 0 0.0 0.0 0.00 0.00 0.00 82 1010.9
20260508045802 43 0 0.0 0.0 0.00 0.00 0.00 82 1010.9
20260508045723 43 0 0.0 0.0 0.00 0.00 0.00 82 1010.9
20260508045602 43 0 0.0 0.0 0.00 0.00 0.00 82 1010.9
20260508045502 43 0 0.0 0.0 0.00 0.00 0.00 81 1010.9
20260508045402 43 0 0.0 0.0 0.00 0.00 0.00 81 1010.9
20260508045323 43 0 0.0 0.0 0.00 0.00 0.00 81 1010.9
20260508045223 43 0 0.0 0.0 0.00 0.00 0.00 81 1010.9
20260508045102 43 0 0.0 0.0 0.00 0.00 0.00 81 1010.9
20260508045002 43 0 0.0 0.0 0.00 0.00 0.00 81 1010.9
20260508044902 43 0 0.0 0.0 0.00 0.00 0.00 81 1010.9
20260508044802 43 0 0.0 0.0 0.00 0.00 0.00 81 1010.9
20260508044702 43 0 0.0 0.0 0.00 0.00 0.00 81 1010.9
20260508044602 43 0 0.0 0.0 0.00 0.00 0.00 80 1010.9
20260508044523 44 0 0.0 0.0 0.00 0.00 0.00 80 1010.9
20260508044402 44 0 0.0 0.0 0.00 0.00 0.00 80 1010.9
20260508044302 44 0 0.0 0.0 0.00 0.00 0.00 80 1010.9
20260508044202 44 0 0.0 0.0 0.00 0.00 0.00 80 1010.9
20260508044123 44 0 0.0 0.0 0.00 0.00 0.00 80 1010.9
20260508044023 44 0 0.0 0.0 0.00 0.00 0.00 80 1010.8
20260508043923 44 0 0.0 0.0 0.00 0.00 0.00 79 1010.8
20260508043802 44 0 0.0 0.0 0.00 0.00 0.00 79 1010.8
20260508043702 44 0 0.0 0.0 0.00 0.00 0.00 79 1010.8
20260508043602 44 0 0.0 0.0 0.00 0.00 0.00 79 1010.8
20260508043502 44 0 0.0 0.0 0.00 0.00 0.00 79 1010.8
20260508043402 44 0 0.0 0.0 0.00 0.00 0.00 79 1010.8
20260508043302 44 0 0.0 0.0 0.00 0.00 0.00 79 1010.8
20260508043202 44 0 0.0 0.0 0.00 0.00 0.00 79 1010.8
20260508043102 44 0 0.0 0.0 0.00 0.00 0.00 79 1010.9
20260508043002 44 0 0.0 0.0 0.00 0.00 0.00 78 1010.9
20260508042902 44 0 0.0 0.0 0.00 0.00 0.00 78 1010.9
20260508042802 44 0 0.0 0.0 0.00 0.00 0.00 78 1010.9
20260508042723 44 0 0.0 0.0 0.00 0.00 0.00 78 1010.9
20260508042602 44 0 0.0 0.0 0.00 0.00 0.00 78 1010.9
20260508042502 44 0 0.0 0.0 0.00 0.00 0.00 78 1010.9
20260508042402 44 0 0.0 0.0 0.00 0.00 0.00 77 1010.9
20260508042306 44 0 0.0 0.0 0.00 0.00 0.00 77 1010.9
20260508042202 44 0 0.0 0.0 0.00 0.00 0.00 77 1010.9
20260508042102 44 0 0.0 0.0 0.00 0.00 0.00 77 1011.0
20260508042002 44 0 0.0 0.0 0.00 0.00 0.00 77 1011.0
20260508041902 44 0 0.0 0.0 0.00 0.00 0.00 77 1011.0
20260508041802 44 0 0.0 0.0 0.00 0.00 0.00 77 1010.9
20260508041702 45 0 0.0 0.0 0.00 0.00 0.00 77 1010.9
20260508041602 45 0 0.0 0.0 0.00 0.00 0.00 77 1010.9
20260508041523 45 0 0.0 0.0 0.00 0.00 0.00 77 1010.9
20260508041402 45 0 0.0 0.0 0.00 0.00 0.00 77 1010.9
20260508041303 45 0 0.0 0.0 0.00 0.00 0.00 77 1010.8
20260508041202 45 0 0.0 0.0 0.00 0.00 0.00 76 1010.8
20260508041102 45 0 0.0 0.0 0.00 0.00 0.00 76 1010.9
20260508041002 45 0 0.0 0.0 0.00 0.00 0.00 76 1010.8
20260508040902 45 0 0.0 0.0 0.00 0.00 0.00 76 1010.8
20260508040802 45 0 0.0 0.0 0.00 0.00 0.00 76 1010.8
20260508040702 45 0 0.0 0.0 0.00 0.00 0.00 76 1010.8
20260508040623 45 0 0.0 0.0 0.00 0.00 0.00 76 1010.8
20260508040523 45 0 0.0 0.0 0.00 0.00 0.00 76 1010.8
20260508040402 45 0 0.0 0.0 0.00 0.00 0.00 75 1010.8
20260508040302 46 0 0.0 0.0 0.00 0.00 0.00 75 1010.9
20260508040202 46 0 0.0 0.0 0.00 0.00 0.00 75 1010.9
20260508040002 46 0 0.0 0.0 0.00 0.00 0.00 74 1010.9
20260508035902 46 0 0.0 0.0 0.00 0.00 0.00 74 1010.9
20260508035802 46 0 0.0 0.0 0.00 0.00 0.00 74 1010.9
20260508035723 46 0 0.0 0.0 0.00 0.00 0.00 74 1010.9
20260508035602 46 0 0.0 0.0 0.00 0.00 0.00 74 1010.9
20260508035502 46 0 0.0 0.0 0.00 0.00 0.00 73 1010.9
20260508035402 47 0 0.0 0.0 0.00 0.00 0.00 72 1010.8
20260508035306 47 0 0.0 0.0 0.00 0.00 0.00 72 1010.8
20260508035202 47 0 0.0 0.0 0.00 0.00 0.00 72 1010.8
20260508035123 47 0 0.0 0.0 0.00 0.00 0.00 72 1010.8
20260508035002 47 0 0.0 0.0 0.00 0.00 0.00 72 1010.8
20260508034902 47 0 0.0 0.0 0.00 0.00 0.00 72 1010.8
20260508034802 48 0 0.0 0.0 0.00 0.00 0.00 72 1010.8
20260508034702 48 0 0.0 0.0 0.00 0.00 0.00 70 1010.8
20260508034602 48 0 0.0 0.0 0.00 0.00 0.00 69 1010.8
20260508034502 48 0 0.0 0.0 0.00 0.00 0.00 68 1010.8
20260508034402 48 0 0.0 0.0 0.00 0.00 0.00 69 1010.8
20260508034302 48 0 0.0 0.0 0.00 0.00 0.00 70 1010.8
20260508034202 48 0 0.0 0.0 0.00 0.00 0.00 69 1010.8
20260508034102 48 0 0.0 0.0 0.00 0.00 0.00 69 1010.8
20260508034002 48 0 0.0 0.0 0.00 0.00 0.00 69 1010.8
20260508033923 49 0 0.0 0.0 0.00 0.00 0.00 70 1010.8
20260508033802 49 0 0.0 0.0 0.00 0.00 0.00 68 1010.8
20260508033702 49 0 0.0 0.0 0.00 0.00 0.00 69 1010.8
20260508033602 49 215 0.0 0.9 0.00 0.00 0.00 68 1010.8
20260508033502 49 215 0.0 0.9 0.00 0.00 0.00 67 1010.8
20260508033402 49 215 0.0 0.9 0.00 0.00 0.00 65 1010.8
20260508033302 49 215 0.0 0.9 0.00 0.00 0.00 65 1010.8
20260508033202 49 215 0.0 0.9 0.00 0.00 0.00 64 1010.8
20260508033102 49 215 0.0 0.9 0.00 0.00 0.00 64 1010.8
20260508033002 49 217 0.0 1.7 0.00 0.00 0.00 64 1010.8
20260508032923 49 223 0.0 1.7 0.00 0.00 0.00 64 1010.8
20260508032802 49 223 0.0 1.7 0.00 0.00 0.00 64 1010.7
20260508032702 49 223 0.0 1.7 0.00 0.00 0.00 63 1010.7
20260508032602 49 224 0.0 1.7 0.00 0.00 0.00 62 1010.7
20260508032502 49 224 0.0 1.7 0.00 0.00 0.00 62 1010.7
20260508032402 49 225 0.0 1.7 0.00 0.00 0.00 62 1010.7
20260508032306 49 226 0.0 1.7 0.00 0.00 0.00 62 1010.7
20260508032202 49 226 0.0 1.7 0.00 0.00 0.00 62 1010.8
20260508032102 49 226 0.0 1.7 0.00 0.00 0.00 63 1010.8
20260508032002 49 235 0.0 0.9 0.00 0.00 0.00 64 1010.8
20260508031902 49 0 0.0 0.0 0.00 0.00 0.00 63 1010.8
20260508031802 49 0 0.0 0.0 0.00 0.00 0.00 62 1010.8
20260508031702 49 0 0.0 0.0 0.00 0.00 0.00 63 1010.7
20260508031602 49 0 0.0 0.0 0.00 0.00 0.00 63 1010.7
20260508031502 49 0 0.0 0.0 0.00 0.00 0.00 63 1010.8
20260508031402 49 0 0.0 0.0 0.00 0.00 0.00 63 1010.8
20260508031302 49 0 0.0 0.0 0.00 0.00 0.00 63 1010.8
20260508031223 49 0 0.0 0.0 0.00 0.00 0.00 63 1010.8
20260508031102 49 0 0.0 0.0 0.00 0.00 0.00 64 1010.7
20260508031023 49 0 0.0 0.0 0.00 0.00 0.00 63 1010.7
20260508030923 49 0 0.0 0.0 0.00 0.00 0.00 62 1010.7
20260508030823 49 0 0.0 0.0 0.00 0.00 0.00 61 1010.8
20260508030702 49 0 0.0 0.0 0.00 0.00 0.00 61 1010.8
20260508030602 49 0 0.0 0.0 0.00 0.00 0.00 61 1010.8
20260508030502 49 0 0.0 0.0 0.00 0.00 0.00 62 1010.8
20260508030402 49 0 0.0 0.0 0.00 0.00 0.00 62 1010.8
20260508030302 49 0 0.0 0.0 0.00 0.00 0.00 62 1010.8
20260508030223 49 0 0.0 0.0 0.00 0.00 0.00 62 1010.8
20260508030002 49 0 0.0 0.0 0.00 0.00 0.00 63 1010.8
20260508025923 49 0 0.0 0.0 0.00 0.00 0.00 62 1010.8
20260508025802 49 0 0.0 0.0 0.00 0.00 0.00 62 1010.8
20260508025702 49 0 0.0 0.0 0.00 0.00 0.00 63 1010.9
20260508025602 49 0 0.0 0.0 0.00 0.00 0.00 63 1010.9
20260508025502 49 0 0.0 0.0 0.00 0.00 0.00 63 1010.9
20260508025402 49 0 0.0 0.0 0.00 0.00 0.00 62 1010.9
20260508025305 49 0 0.0 0.0 0.00 0.00 0.00 61 1010.9
20260508025223 49 0 0.0 0.0 0.00 0.00 0.00 61 1011.0
20260508025102 49 0 0.0 0.0 0.00 0.00 0.00 62 1011.0
20260508025003 49 0 0.0 0.0 0.00 0.00 0.00 62 1011.0
20260508024902 49 0 0.0 0.0 0.00 0.00 0.00 62 1011.0
20260508024802 49 0 0.0 0.0 0.00 0.00 0.00 63 1011.0
20260508024702 49 0 0.0 0.0 0.00 0.00 0.00 63 1010.9
20260508024602 49 0 0.0 0.0 0.00 0.00 0.00 64 1010.9
20260508024502 49 0 0.0 0.0 0.00 0.00 0.00 63 1010.9
20260508024402 49 0 0.0 0.0 0.00 0.00 0.00 64 1010.9
20260508024302 49 0 0.0 0.0 0.00 0.00 0.00 63 1010.9
20260508024202 49 0 0.0 0.0 0.00 0.00 0.00 62 1010.9
20260508024102 49 0 0.0 0.0 0.00 0.00 0.00 63 1011.0
20260508024002 49 0 0.0 0.0 0.00 0.00 0.00 63 1011.0
20260508023923 49 0 0.0 0.0 0.00 0.00 0.00 63 1011.1
20260508023802 49 0 0.0 0.0 0.00 0.00 0.00 61 1011.1
20260508023723 49 0 0.0 0.0 0.00 0.00 0.00 61 1011.1
20260508023602 49 0 0.0 0.0 0.00 0.00 0.00 62 1011.0
20260508023502 49 0 0.0 0.0 0.00 0.00 0.00 62 1011.0
20260508023402 49 0 0.0 0.0 0.00 0.00 0.00 63 1011.1
20260508023302 49 0 0.0 0.0 0.00 0.00 0.00 61 1011.1
20260508023202 49 0 0.0 0.0 0.00 0.00 0.00 60 1011.1
20260508023123 49 0 0.0 0.0 0.00 0.00 0.00 60 1011.0
20260508023002 49 0 0.0 0.0 0.00 0.00 0.00 61 1011.0
20260508022902 49 0 0.0 0.0 0.00 0.00 0.00 62 1011.0
20260508022802 49 0 0.0 0.0 0.00 0.00 0.00 62 1011.0
20260508022702 49 0 0.0 0.0 0.00 0.00 0.00 62 1011.0
20260508022602 49 0 0.0 0.0 0.00 0.00 0.00 62 1011.0
20260508022502 49 0 0.0 0.0 0.00 0.00 0.00 62 1011.0
20260508022402 49 0 0.0 0.0 0.00 0.00 0.00 62 1011.0
20260508022306 49 0 0.0 0.0 0.00 0.00 0.00 61 1010.9
20260508022202 49 0 0.0 0.0 0.00 0.00 0.00 63 1010.9
20260508022102 49 0 0.0 0.0 0.00 0.00 0.00 63 1011.0
20260508022023 49 0 0.0 0.0 0.00 0.00 0.00 63 1011.0
20260508021902 49 0 0.0 0.0 0.00 0.00 0.00 61 1010.9
20260508021802 49 0 0.0 0.0 0.00 0.00 0.00 60 1010.8
20260508021702 49 0 0.0 0.0 0.00 0.00 0.00 60 1010.8
20260508021602 49 0 0.0 0.0 0.00 0.00 0.00 59 1010.9
20260508021502 49 0 0.0 0.0 0.00 0.00 0.00 60 1010.9
20260508021423 49 0 0.0 0.0 0.00 0.00 0.00 60 1010.9
20260508021302 49 0 0.0 0.0 0.00 0.00 0.00 60 1010.9
20260508021202 49 0 0.0 0.0 0.00 0.00 0.00 60 1010.9
20260508021102 49 0 0.0 0.0 0.00 0.00 0.00 58 1010.9
20260508021002 49 0 0.0 0.0 0.00 0.00 0.00 59 1010.9
20260508020902 49 0 0.0 0.0 0.00 0.00 0.00 61 1010.9
20260508020802 49 0 0.0 0.0 0.00 0.00 0.00 61 1010.9
20260508020702 49 0 0.0 0.0 0.00 0.00 0.00 62 1010.9
20260508020602 49 0 0.0 0.0 0.00 0.00 0.00 57 1010.9
20260508020502 50 0 0.0 0.0 0.00 0.00 0.00 57 1010.9
20260508020402 50 0 0.0 0.0 0.00 0.00 0.00 58 1010.9
20260508020302 50 0 0.0 0.0 0.00 0.00 0.00 59 1010.9
20260508020223 50 0 0.0 0.0 0.00 0.00 0.00 59 1010.9
20260508020002 50 0 0.0 0.0 0.00 0.00 0.00 59 1010.9
20260508015923 50 0 0.0 0.0 0.00 0.00 0.00 58 1010.9
20260508015802 50 0 0.0 0.0 0.00 0.00 0.00 56 1010.8
20260508015702 50 0 0.0 0.0 0.00 0.00 0.00 55 1010.7
20260508015602 50 0 0.0 0.0 0.00 0.00 0.00 55 1010.7
20260508015523 50 0 0.0 0.0 0.00 0.00 0.00 57 1010.8
20260508015402 50 0 0.0 0.0 0.00 0.00 0.00 55 1010.8
20260508015305 50 0 0.0 0.0 0.00 0.00 0.00 55 1010.8
20260508015202 50 0 0.0 0.0 0.00 0.00 0.00 58 1010.8
20260508015102 50 0 0.0 0.0 0.00 0.00 0.00 56 1010.8
20260508015002 50 0 0.0 0.0 0.00 0.00 0.00 55 1010.9
20260508014902 50 0 0.0 0.0 0.00 0.00 0.00 55 1010.9
20260508014802 50 0 0.0 0.0 0.00 0.00 0.00 56 1010.8
20260508014702 50 0 0.0 0.0 0.00 0.00 0.00 55 1010.8
20260508014602 50 346 0.0 0.9 0.00 0.00 0.00 55 1010.8
20260508014502 50 304 0.0 0.9 0.00 0.00 0.00 55 1010.9
20260508014402 50 273 0.0 1.7 0.00 0.00 0.00 54 1010.8
20260508014302 50 275 0.0 1.7 0.00 0.00 0.00 54 1010.8
20260508014202 50 286 0.0 1.7 0.00 0.00 0.00 54 1010.8
20260508014102 50 311 0.9 1.7 0.00 0.00 0.00 54 1010.8
20260508014002 50 328 0.9 1.7 0.00 0.00 0.00 55 1010.8
20260508013923 50 337 0.9 3.5 0.00 0.00 0.00 55 1010.8
20260508013802 50 338 0.9 5.2 0.00 0.00 0.00 56 1010.8
20260508013702 50 335 0.9 5.2 0.00 0.00 0.00 56 1010.9
20260508013602 50 346 0.9 5.2 0.00 0.00 0.00 54 1010.9
20260508013502 50 350 0.9 5.2 0.00 0.00 0.00 53 1010.8
20260508013402 50 354 0.9 5.2 0.00 0.00 0.00 53 1010.8
20260508013302 50 354 0.9 5.2 0.00 0.00 0.00 54 1010.8
20260508013202 49 354 0.9 5.2 0.00 0.00 0.00 55 1010.8
20260508013102 49 356 0.9 5.2 0.00 0.00 0.00 57 1010.8
20260508013002 49 355 0.9 5.2 0.00 0.00 0.00 57 1010.8
20260508012923 49 353 0.9 5.2 0.00 0.00 0.00 59 1010.8
20260508012802 49 8 0.9 2.6 0.00 0.00 0.00 60 1010.7
20260508012723 49 6 0.0 2.6 0.00 0.00 0.00 60 1010.7
20260508012602 49 348 0.0 2.6 0.00 0.00 0.00 57 1010.6
20260508012502 49 0 0.0 0.0 0.00 0.00 0.00 56 1010.6
20260508012423 49 0 0.0 0.0 0.00 0.00 0.00 56 1010.6
20260508012307 49 0 0.0 0.0 0.00 0.00 0.00 56 1010.6
20260508012223 49 0 0.0 0.0 0.00 0.00 0.00 56 1010.6
20260508012102 49 0 0.0 0.0 0.00 0.00 0.00 56 1010.6
20260508012023 49 0 0.0 0.0 0.00 0.00 0.00 57 1010.6
20260508011923 49 0 0.0 0.0 0.00 0.00 0.00 57 1010.6
20260508011802 49 0 0.0 0.0 0.00 0.00 0.00 58 1010.6
20260508011702 49 0 0.0 0.0 0.00 0.00 0.00 58 1010.5
20260508011602 49 0 0.0 0.0 0.00 0.00 0.00 58 1010.5
20260508011523 49 0 0.0 0.0 0.00 0.00 0.00 58 1010.5
20260508011423 49 0 0.0 0.0 0.00 0.00 0.00 56 1010.5
20260508011302 49 0 0.0 0.0 0.00 0.00 0.00 59 1010.5
20260508011202 49 0 0.0 0.0 0.00 0.00 0.00 57 1010.5
20260508011102 49 0 0.0 0.0 0.00 0.00 0.00 57 1010.4
20260508011002 49 0 0.0 0.0 0.00 0.00 0.00 58 1010.4
20260508010902 49 0 0.0 0.0 0.00 0.00 0.00 55 1010.4
20260508010802 49 0 0.0 0.0 0.00 0.00 0.00 56 1010.4
20260508010723 50 0 0.0 0.0 0.00 0.00 0.00 58 1010.4
20260508010602 50 0 0.0 0.0 0.00 0.00 0.00 57 1010.4
20260508010502 50 0 0.0 0.0 0.00 0.00 0.00 58 1010.4
20260508010402 50 0 0.0 0.0 0.00 0.00 0.00 59 1010.4
20260508010302 50 0 0.0 0.0 0.00 0.00 0.00 59 1010.5
20260508010202 50 0 0.0 0.0 0.00 0.00 0.00 57 1010.5
20260508010002 50 0 0.0 0.0 0.00 0.00 0.00 56 1010.5
20260508005902 50 0 0.0 0.0 0.00 0.00 0.00 57 1010.4
20260508005823 50 0 0.0 0.0 0.00 0.00 0.00 57 1010.4
20260508005723 51 0 0.0 0.0 0.00 0.00 0.00 54 1010.4
20260508005602 51 0 0.0 0.0 0.00 0.00 0.00 56 1010.4
20260508005502 51 0 0.0 0.0 0.00 0.00 0.00 55 1010.4
20260508005402 51 0 0.0 0.0 0.00 0.00 0.00 57 1010.4
20260508005305 51 0 0.0 0.0 0.00 0.00 0.00 55 1010.3
20260508005202 51 0 0.0 0.0 0.00 0.00 0.00 49 1010.3
20260508005102 51 0 0.0 0.0 0.00 0.00 0.00 49 1010.3
20260508005002 51 0 0.0 0.0 0.00 0.00 0.00 49 1010.3
20260508004902 51 0 0.0 0.0 0.00 0.00 0.00 48 1010.3
20260508004802 51 0 0.0 0.0 0.00 0.00 0.00 49 1010.2
20260508004702 51 0 0.0 0.0 0.00 0.00 0.00 49 1010.2
20260508004602 51 0 0.0 0.0 0.00 0.00 0.00 50 1010.2
20260508004502 51 0 0.0 0.0 0.00 0.00 0.00 50 1010.3
20260508004402 51 0 0.0 0.0 0.00 0.00 0.00 51 1010.3
20260508004302 51 0 0.0 0.0 0.00 0.00 0.00 49 1010.3
20260508004202 52 0 0.0 0.0 0.00 0.00 0.00 50 1010.3
20260508004102 52 8 0.0 0.9 0.00 0.00 0.00 50 1010.2
20260508004002 52 8 0.0 0.9 0.00 0.00 0.00 49 1010.2
20260508003902 52 8 0.0 0.9 0.00 0.00 0.00 48 1010.2
20260508003802 52 8 0.0 0.9 0.00 0.00 0.00 48 1010.2
20260508003702 52 13 0.0 1.7 0.00 0.00 0.00 48 1010.2
20260508003602 52 11 0.0 1.7 0.00 0.00 0.00 46 1010.2
20260508003502 52 12 0.0 1.7 0.00 0.00 0.00 46 1010.3
20260508003402 52 12 0.0 1.7 0.00 0.00 0.00 46 1010.3
20260508003302 52 12 0.0 1.7 0.00 0.00 0.00 47 1010.3
20260508003202 52 10 0.0 2.6 0.00 0.00 0.00 46 1010.2
20260508003102 52 9 0.0 2.6 0.00 0.00 0.00 45 1010.2
20260508003002 52 9 0.0 2.6 0.00 0.00 0.00 46 1010.2
20260508002902 52 11 0.9 2.6 0.00 0.00 0.00 45 1010.2
20260508002803 52 10 0.9 2.6 0.00 0.00 0.00 46 1010.2
20260508002702 52 1 0.9 2.6 0.00 0.00 0.00 47 1010.2
20260508002602 52 352 0.9 2.6 0.00 0.00 0.00 44 1010.2
20260508002502 52 344 0.9 4.3 0.00 0.00 0.00 45 1010.2
20260508002402 52 344 0.9 4.3 0.00 0.00 0.00 45 1010.2
20260508002306 52 346 0.9 4.3 0.00 0.00 0.00 46 1010.2
20260508002223 52 346 0.9 4.3 0.00 0.00 0.00 46 1010.2
20260508002102 52 347 0.9 4.3 0.00 0.00 0.00 46 1010.2
20260508002002 52 345 0.9 4.3 0.00 0.00 0.00 45 1010.2
20260508001902 52 336 0.9 4.3 0.00 0.00 0.00 46 1010.3
20260508001802 52 330 0.9 4.3 0.00 0.00 0.00 45 1010.3
20260508001702 52 332 0.9 4.3 0.00 0.00 0.00 45 1010.2
20260508001623 52 337 0.9 4.3 0.00 0.00 0.00 45 1010.2
20260508001502 52 343 0.9 3.5 0.00 0.00 0.00 46 1010.2
20260508001402 52 343 0.9 3.5 0.00 0.00 0.00 45 1010.2
20260508001302 52 336 0.0 3.5 0.00 0.00 0.00 44 1010.2
20260508001223 53 319 0.0 3.5 0.00 0.00 0.00 45 1010.2
20260508001102 53 230 0.0 1.7 0.00 0.00 0.00 48 1010.2
20260508001002 53 231 0.0 1.7 0.00 0.00 0.00 45 1010.2
20260508000902 53 230 0.0 1.7 0.00 0.00 0.00 46 1010.2
20260508000802 53 230 0.0 1.7 0.00 0.00 0.00 44 1010.2
20260508000702 53 230 0.0 1.7 0.00 0.00 0.00 45 1010.2
20260508000602 53 229 0.0 1.7 0.00 0.00 0.00 44 1010.3
20260508000502 53 228 0.0 1.7 0.00 0.00 0.00 46 1010.3
20260508000404 53 228 0.0 1.7 0.00 0.00 0.00 45 1010.3
20260508000304 53 236 0.0 1.7 0.00 0.00 0.00 45 1010.3
20260508000204 53 238 0.0 1.7 0.00 0.00 0.00 44 1010.3
20260508000002 53 248 0.0 1.7 0.00 0.00 0.00 44 1010.2
20260507235902 53 248 0.0 1.7 0.00 0.00 0.00 44 1010.1
20260507235802 53 265 0.0 0.9 0.00 0.00 0.00 46 1010.1
20260507235723 53 268 0.0 0.9 0.00 0.00 0.00 45 1010.2
20260507235602 53 274 0.0 0.9 0.00 0.00 0.00 45 1010.1
20260507235502 53 276 0.0 0.9 0.00 0.00 0.00 44 1010.1
20260507235402 53 278 0.0 0.9 0.00 0.00 0.00 43 1010.1
20260507235323 53 278 0.0 0.9 0.00 0.00 0.00 43 1010.1
20260507235202 53 303 0.0 0.9 0.00 0.00 0.00 44 1010.1
20260507235123 53 320 0.0 2.6 0.00 0.00 0.00 44 1010.1
20260507235002 53 326 0.0 2.6 0.00 0.00 0.00 44 1010.1
20260507234902 53 315 0.0 2.6 0.00 0.00 0.00 43 1010.1
20260507234802 53 301 0.0 2.6 0.00 0.00 0.00 43 1010.1
20260507234702 53 287 0.0 2.6 0.00 0.00 0.00 44 1010.1
20260507234623 53 288 0.0 2.6 0.00 0.00 0.00 44 1010.1
20260507234502 53 280 0.0 2.6 0.00 0.00 0.00 46 1010.1
20260507234402 53 279 0.0 2.6 0.00 0.00 0.00 45 1010.1
20260507234302 53 281 0.0 2.6 0.00 0.00 0.00 45 1010.1
20260507234202 53 274 0.0 2.6 0.00 0.00 0.00 43 1010.1
20260507234102 53 248 0.0 2.6 0.00 0.00 0.00 44 1010.1
20260507234002 53 244 0.0 2.6 0.00 0.00 0.00 43 1010.1
20260507233902 53 242 0.0 2.6 0.00 0.00 0.00 43 1010.2
20260507233802 53 240 0.0 2.6 0.00 0.00 0.00 43 1010.2
20260507233702 53 239 0.0 2.6 0.00 0.00 0.00 44 1010.2
20260507233602 53 239 0.0 2.6 0.00 0.00 0.00 43 1010.2
20260507233523 53 235 0.0 2.6 0.00 0.00 0.00 44 1010.2
20260507233402 53 234 0.0 2.6 0.00 0.00 0.00 43 1010.2
20260507233323 53 233 0.0 2.6 0.00 0.00 0.00 43 1010.2
20260507233202 53 224 0.0 2.6 0.00 0.00 0.00 43 1010.2
20260507233102 53 239 0.0 2.6 0.00 0.00 0.00 43 1010.2
20260507233023 53 256 0.0 2.6 0.00 0.00 0.00 43 1010.2
20260507232924 53 267 0.0 2.6 0.00 0.00 0.00 44 1010.2
20260507232802 53 331 0.0 1.7 0.00 0.00 0.00 44 1010.2
20260507232702 53 331 0.0 1.7 0.00 0.00 0.00 43 1010.2
20260507232602 53 331 0.0 1.7 0.00 0.00 0.00 43 1010.2
20260507232502 53 327 0.0 1.7 0.00 0.00 0.00 42 1010.2
20260507232402 53 302 0.0 1.7 0.00 0.00 0.00 43 1010.2
20260507232306 53 267 0.0 1.7 0.00 0.00 0.00 43 1010.2
20260507232202 53 267 0.0 1.7 0.00 0.00 0.00 42 1010.2
20260507232102 53 234 0.0 1.7 0.00 0.00 0.00 42 1010.2
20260507232002 53 240 0.0 1.7 0.00 0.00 0.00 43 1010.2
20260507231902 53 240 0.0 1.7 0.00 0.00 0.00 43 1010.2
20260507231823 53 275 0.0 1.7 0.00 0.00 0.00 43 1010.2
20260507231702 53 293 0.0 1.7 0.00 0.00 0.00 43 1010.3
20260507231602 53 300 0.0 1.7 0.00 0.00 0.00 42 1010.3
20260507231502 53 302 0.0 1.7 0.00 0.00 0.00 42 1010.2
20260507231402 53 313 0.0 1.7 0.00 0.00 0.00 43 1010.2
20260507231302 53 331 0.0 1.7 0.00 0.00 0.00 43 1010.2
20260507231223 53 331 0.0 1.7 0.00 0.00 0.00 43 1010.2
20260507231102 53 331 0.0 1.7 0.00 0.00 0.00 43 1010.3
20260507231002 54 330 0.0 1.7 0.00 0.00 0.00 42 1010.3
20260507230902 54 341 0.0 2.6 0.00 0.00 0.00 42 1010.3
20260507230824 54 341 0.0 2.6 0.00 0.00 0.00 42 1010.3
20260507230702 54 332 0.0 2.6 0.00 0.00 0.00 43 1010.3
20260507230602 54 332 0.0 2.6 0.00 0.00 0.00 43 1010.3
20260507230503 53 341 0.9 2.6 0.00 0.00 0.00 42 1010.4
20260507230423 54 342 0.9 2.6 0.00 0.00 0.00 42 1010.4
20260507230302 54 343 0.9 2.6 0.00 0.00 0.00 42 1010.3
20260507230202 54 341 0.9 2.6 0.00 0.00 0.00 43 1010.4
20260507230002 54 347 0.9 2.6 0.00 0.00 0.00 42 1010.4
20260507225902 54 334 0.9 2.6 0.00 0.00 0.00 43 1010.4
20260507225802 54 325 0.9 2.6 0.00 0.00 0.00 43 1010.4
20260507225702 54 331 0.9 2.6 0.00 0.00 0.00 42 1010.3
20260507225602 54 331 0.9 2.6 0.00 0.00 0.00 41 1010.3
20260507225502 54 315 0.9 2.6 0.00 0.00 0.00 43 1010.4
20260507225402 54 277 0.9 3.5 0.00 0.00 0.00 43 1010.3
20260507225305 54 275 0.9 3.5 0.00 0.00 0.00 41 1010.3
20260507225202 54 275 0.9 3.5 0.00 0.00 0.00 41 1010.4
20260507225123 54 269 0.9 3.5 0.00 0.00 0.00 43 1010.4
20260507225002 54 265 0.9 3.5 0.00 0.00 0.00 42 1010.4
20260507224902 54 259 0.9 3.5 0.00 0.00 0.00 41 1010.4
20260507224802 54 262 0.9 3.5 0.00 0.00 0.00 41 1010.4
20260507224702 54 262 0.9 3.5 0.00 0.00 0.00 41 1010.4
20260507224602 54 260 0.9 3.5 0.00 0.00 0.00 40 1010.4
20260507224502 54 250 0.9 3.5 0.00 0.00 0.00 40 1010.5
20260507224403 54 291 0.9 2.6 0.00 0.00 0.00 42 1010.4
20260507224323 54 293 0.9 2.6 0.00 0.00 0.00 42 1010.4
20260507224202 54 258 0.9 2.6 0.00 0.00 0.00 41 1010.4
20260507224102 54 236 0.0 2.6 0.00 0.00 0.00 43 1010.4
20260507224002 54 220 0.9 6.1 0.00 0.00 0.00 42 1010.4
20260507223923 54 225 0.9 7.0 0.00 0.00 0.00 41 1010.5
20260507223802 54 230 0.9 7.0 0.00 0.00 0.00 42 1010.5
20260507223723 54 232 0.9 7.0 0.00 0.00 0.00 42 1010.6
20260507223602 54 231 0.9 7.0 0.00 0.00 0.00 40 1010.6
20260507223502 54 230 0.9 7.0 0.00 0.00 0.00 41 1010.6
20260507223402 54 230 0.9 7.0 0.00 0.00 0.00 41 1010.6
20260507223323 54 230 0.9 7.0 0.00 0.00 0.00 43 1010.6
20260507223202 54 236 0.9 7.0 0.00 0.00 0.00 42 1010.5
20260507223102 54 241 1.7 7.0 0.00 0.00 0.00 41 1010.5
20260507223002 54 257 0.9 7.0 0.00 0.00 0.00 40 1010.5
20260507222902 54 306 0.9 5.2 0.00 0.00 0.00 42 1010.5
20260507222802 54 326 0.9 4.3 0.00 0.00 0.00 41 1010.5
20260507222723 54 324 0.9 4.3 0.00 0.00 0.00 42 1010.4
20260507222602 54 336 0.9 4.3 0.00 0.00 0.00 43 1010.3
20260507222502 54 344 0.9 3.5 0.00 0.00 0.00 41 1010.3
20260507222423 54 344 0.9 3.5 0.00 0.00 0.00 40 1010.4
20260507222305 54 346 0.9 3.5 0.00 0.00 0.00 41 1010.4
20260507222223 54 346 0.9 3.5 0.00 0.00 0.00 40 1010.4
20260507222102 54 350 0.9 3.5 0.00 0.00 0.00 42 1010.5
20260507222002 54 353 0.9 3.5 0.00 0.00 0.00 41 1010.5
20260507221902 54 343 0.0 1.7 0.00 0.00 0.00 43 1010.5
20260507221802 54 346 0.0 2.6 0.00 0.00 0.00 41 1010.4
20260507221702 54 350 0.0 2.6 0.00 0.00 0.00 43 1010.4
20260507221602 54 353 0.9 2.6 0.00 0.00 0.00 42 1010.4
20260507221502 54 352 0.9 2.6 0.00 0.00 0.00 42 1010.4
20260507221402 54 352 0.9 2.6 0.00 0.00 0.00 42 1010.4
20260507221302 54 351 0.9 2.6 0.00 0.00 0.00 42 1010.6
20260507221202 54 350 0.9 2.6 0.00 0.00 0.00 42 1010.6
20260507221102 54 347 0.9 3.5 0.00 0.00 0.00 42 1010.5
20260507221002 54 348 0.9 3.5 0.00 0.00 0.00 41 1010.6
20260507220902 54 348 0.9 3.5 0.00 0.00 0.00 40 1010.6
20260507220802 54 347 0.9 3.5 0.00 0.00 0.00 41 1010.6
20260507220723 54 347 0.9 3.5 0.00 0.00 0.00 41 1010.6
20260507220602 54 341 0.9 3.5 0.00 0.00 0.00 41 1010.6
20260507220502 54 324 0.9 3.5 0.00 0.00 0.00 41 1010.6
20260507220402 54 297 0.9 6.1 0.00 0.00 0.00 42 1010.6
20260507220302 54 295 0.9 6.1 0.00 0.00 0.00 41 1010.6
20260507220202 54 288 0.9 6.1 0.00 0.00 0.00 41 1010.6
20260507220123 54 282 0.9 6.1 0.00 0.00 0.00 42 1010.6
20260507220002 54 256 0.9 6.1 0.00 0.00 0.00 43 1010.6
20260507215902 54 260 0.9 6.1 0.00 0.00 0.00 42 1010.6
20260507215823 54 261 0.9 6.1 0.00 0.00 0.00 42 1010.6
20260507215703 54 298 0.9 6.1 0.00 0.00 0.00 41 1010.6
20260507215602 54 306 0.9 6.1 0.00 0.00 0.00 42 1010.7
20260507215502 54 314 0.9 6.1 0.00 0.00 0.00 42 1010.7
20260507215424 54 331 0.9 4.3 0.00 0.00 0.00 39 1010.6
20260507215306 54 320 0.9 4.3 0.00 0.00 0.00 40 1010.6
20260507215202 54 312 0.9 4.3 0.00 0.00 0.00 42 1010.7
20260507215123 54 309 0.9 4.3 0.00 0.00 0.00 42 1010.7
20260507215002 54 317 0.9 4.3 0.00 0.00 0.00 40 1010.7
20260507214923 54 319 0.9 4.3 0.00 0.00 0.00 40 1010.7